Wetterdaten: Samstag, 27.03.2021
Datum Zeit Temp. Aussen Temp. o. S. Temp +5cm Feuchte Auss Luftdruck Regen Sonnenschein Regendauer Solar Windben Empfang
27.03.2021 00:00 10,6 C 10,0 C 7,3 C 73 % 1011,3 hPa 0,0 l/m 0 min 0 min 0 W/m 9,7 km/h (2 Bft) 97,87 %
27.03.2021 00:02 10,6 C 10,0 C 7,3 C 73 % 1011,3 hPa 0,0 l/m 0 min 0 min 0 W/m 12,9 km/h (3 Bft) 97,37 %
27.03.2021 00:04 10,6 C 10,0 C 7,3 C 74 % 1011,3 hPa 0,0 l/m 0 min 0 min 0 W/m 19,3 km/h (3 Bft) 95,74 %
27.03.2021 00:08 10,8 C 10,6 C 7,8 C 73 % 1011,4 hPa 0,0 l/m 0 min 0 min 0 W/m 29,0 km/h (5 Bft) 94,68 %
27.03.2021 00:10 10,9 C 10,6 C 7,8 C 73 % 1011,5 hPa 0,0 l/m 0 min 0 min 0 W/m 35,4 km/h (5 Bft) 95,74 %
27.03.2021 00:12 11,0 C 10,6 C 7,8 C 73 % 1011,6 hPa 0,0 l/m 0 min 0 min 0 W/m 22,5 km/h (4 Bft) 93,62 %
27.03.2021 00:14 11,2 C 10,6 C 7,8 C 73 % 1011,7 hPa 0,0 l/m 0 min 0 min 0 W/m 38,6 km/h (5 Bft) 95,74 %
27.03.2021 00:16 11,2 C 10,6 C 7,8 C 75 % 1011,9 hPa 0,0 l/m 0 min 2 min 0 W/m 29,0 km/h (5 Bft) 93,48 %
27.03.2021 00:18 10,8 C 9,4 C 7,8 C 76 % 1012,1 hPa 0,0 l/m 0 min 2 min 0 W/m 29,0 km/h (5 Bft) 91,49 %
27.03.2021 00:20 10,4 C 8,9 C 6,1 C 77 % 1012,1 hPa 0,0 l/m 0 min 2 min 0 W/m 41,8 km/h (6 Bft) 93,62 %
27.03.2021 00:22 10,0 C 8,9 C 6,1 C 79 % 1012,1 hPa 0,0 l/m 0 min 2 min 0 W/m 19,3 km/h (3 Bft) 91,49 %
27.03.2021 00:24 9,8 C 8,3 C 6,1 C 80 % 1012,2 hPa 0,0 l/m 0 min 0 min 0 W/m 19,3 km/h (3 Bft) 97,87 %
27.03.2021 00:26 9,6 C 8,3 C 6,1 C 81 % 1012,2 hPa 0,0 l/m 0 min 2 min 0 W/m 22,5 km/h (4 Bft) 97,87 %
27.03.2021 00:28 9,4 C 8,3 C 6,1 C 82 % 1012,3 hPa 0,0 l/m 0 min 0 min 0 W/m 19,3 km/h (3 Bft) 100,00 %
27.03.2021 00:30 9,3 C 8,3 C 5,6 C 82 % 1012,4 hPa 0,0 l/m 0 min 0 min 0 W/m 35,4 km/h (5 Bft) 97,87 %
27.03.2021 00:32 9,1 C 8,3 C 5,6 C 83 % 1012,4 hPa 0,0 l/m 0 min 0 min 0 W/m 22,5 km/h (4 Bft) 97,87 %
27.03.2021 00:34 9,0 C 8,3 C 5,6 C 83 % 1012,4 hPa 0,0 l/m 0 min 0 min 0 W/m 12,9 km/h (3 Bft) 95,74 %
27.03.2021 00:36 8,9 C 7,8 C 5,6 C 84 % 1012,6 hPa 0,0 l/m 0 min 0 min 0 W/m 22,5 km/h (4 Bft) 95,74 %
27.03.2021 00:38 8,8 C 7,8 C 5,6 C 84 % 1012,6 hPa 0,0 l/m 0 min 0 min 0 W/m 25,7 km/h (4 Bft) 97,87 %
27.03.2021 00:40 8,6 C 7,8 C 5,6 C 83 % 1012,7 hPa 0,0 l/m 0 min 0 min 0 W/m 12,9 km/h (3 Bft) 91,11 %
27.03.2021 00:42 8,5 C 7,8 C 5,6 C 84 % 1012,7 hPa 0,0 l/m 0 min 0 min 0 W/m 16,1 km/h (3 Bft) 97,87 %
27.03.2021 00:44 8,5 C 7,8 C 5,6 C 84 % 1012,7 hPa 0,0 l/m 0 min 0 min 0 W/m 22,5 km/h (4 Bft) 97,87 %
27.03.2021 00:46 8,4 C 7,8 C 5,6 C 84 % 1012,8 hPa 0,0 l/m 0 min 0 min 0 W/m 22,5 km/h (4 Bft) 97,87 %
27.03.2021 00:48 8,3 C 7,8 C 5,0 C 84 % 1012,7 hPa 0,0 l/m 0 min 0 min 0 W/m 32,2 km/h (5 Bft) 95,74 %
27.03.2021 00:50 8,2 C 7,2 C 5,0 C 84 % 1012,7 hPa 0,0 l/m 0 min 0 min 0 W/m 29,0 km/h (5 Bft) 97,87 %
27.03.2021 00:52 8,1 C 7,2 C 5,0 C 84 % 1012,6 hPa 0,0 l/m 0 min 0 min 0 W/m 25,7 km/h (4 Bft) 95,65 %
27.03.2021 00:54 8,1 C 7,2 C 5,0 C 84 % 1012,6 hPa 0,0 l/m 0 min 0 min 0 W/m 38,6 km/h (5 Bft) 97,87 %
27.03.2021 00:56 8,0 C 7,2 C 5,0 C 85 % 1012,7 hPa 0,0 l/m 0 min 0 min 0 W/m 19,3 km/h (3 Bft) 97,87 %
27.03.2021 00:58 8,0 C 7,2 C 5,0 C 85 % 1012,7 hPa 0,0 l/m 0 min 0 min 0 W/m 25,7 km/h (4 Bft) 95,74 %
27.03.2021 01:00 8,0 C 7,2 C 5,0 C 85 % 1012,7 hPa 0,0 l/m 0 min 0 min 0 W/m 22,5 km/h (4 Bft) 97,87 %
27.03.2021 01:02 7,9 C 7,2 C 5,0 C 86 % 1012,6 hPa 0,0 l/m 0 min 0 min 0 W/m 25,7 km/h (4 Bft) 95,83 %
27.03.2021 01:04 7,9 C 7,2 C 5,0 C 86 % 1012,8 hPa 0,0 l/m 0 min 0 min 0 W/m 19,3 km/h (3 Bft) 97,83 %
27.03.2021 01:06 7,8 C 7,2 C 5,0 C 86 % 1012,8 hPa 0,0 l/m 0 min 0 min 0 W/m 16,1 km/h (3 Bft) 95,74 %
27.03.2021 01:08 7,8 C 7,2 C 5,0 C 86 % 1013,0 hPa 0,0 l/m 0 min 0 min 0 W/m 22,5 km/h (4 Bft) 95,74 %
27.03.2021 01:10 7,8 C 7,2 C 5,0 C 87 % 1013,1 hPa 0,0 l/m 0 min 0 min 0 W/m 19,3 km/h (3 Bft) 97,87 %
27.03.2021 01:12 7,8 C 7,2 C 5,0 C 87 % 1013,1 hPa 0,0 l/m 0 min 0 min 0 W/m 16,1 km/h (3 Bft) 95,74 %
27.03.2021 01:14 7,7 C 7,2 C 5,0 C 87 % 1013,2 hPa 0,0 l/m 0 min 0 min 0 W/m 16,1 km/h (3 Bft) 97,87 %
27.03.2021 01:16 7,7 C 7,2 C 5,0 C 87 % 1013,3 hPa 0,0 l/m 0 min 0 min 0 W/m 16,1 km/h (3 Bft) 95,65 %
27.03.2021 01:18 7,7 C 7,2 C 4,5 C 87 % 1013,4 hPa 0,0 l/m 0 min 0 min 0 W/m 12,9 km/h (3 Bft) 97,87 %
27.03.2021 01:20 7,6 C 7,2 C 4,5 C 88 % 1013,4 hPa 0,0 l/m 0 min 2 min 0 W/m 9,7 km/h (2 Bft) 97,87 %
27.03.2021 01:22 7,6 C 6,7 C 4,5 C 88 % 1013,7 hPa 0,0 l/m 0 min 2 min 0 W/m 16,1 km/h (3 Bft) 97,87 %
27.03.2021 01:24 7,5 C 6,7 C 4,5 C 88 % 1013,6 hPa 0,0 l/m 0 min 2 min 0 W/m 22,5 km/h (4 Bft) 95,74 %
27.03.2021 01:26 7,5 C 6,7 C 3,9 C 88 % 1013,8 hPa 0,0 l/m 0 min 2 min 0 W/m 19,3 km/h (3 Bft) 97,87 %
27.03.2021 01:28 7,4 C 6,7 C 3,9 C 89 % 1013,8 hPa 0,0 l/m 0 min 2 min 0 W/m 19,3 km/h (3 Bft) 97,83 %
27.03.2021 01:30 7,2 C 6,1 C 3,9 C 89 % 1013,9 hPa 0,2 l/m 0 min 2 min 0 W/m 29,0 km/h (5 Bft) 97,87 %
27.03.2021 01:32 7,1 C 6,1 C 3,4 C 89 % 1013,8 hPa 0,0 l/m 0 min 2 min 0 W/m 25,7 km/h (4 Bft) 95,83 %
27.03.2021 01:34 7,0 C 6,1 C 3,4 C 89 % 1013,7 hPa 0,0 l/m 0 min 2 min 0 W/m 12,9 km/h (3 Bft) 97,87 %
27.03.2021 01:36 7,0 C 6,1 C 3,4 C 90 % 1013,9 hPa 0,0 l/m 0 min 2 min 0 W/m 12,9 km/h (3 Bft) 95,74 %
27.03.2021 01:38 6,9 C 6,1 C 3,4 C 90 % 1013,9 hPa 0,0 l/m 0 min 2 min 0 W/m 12,9 km/h (3 Bft) 97,83 %
27.03.2021 01:40 6,8 C 6,1 C 3,4 C 90 % 1013,9 hPa 0,2 l/m 0 min 2 min 0 W/m 12,9 km/h (3 Bft) 97,87 %
27.03.2021 01:42 6,8 C 6,1 C 3,4 C 91 % 1013,8 hPa 0,0 l/m 0 min 2 min 0 W/m 9,7 km/h (2 Bft) 97,73 %
27.03.2021 01:44 6,8 C 6,1 C 3,4 C 91 % 1013,9 hPa 0,0 l/m 0 min 2 min 0 W/m 9,7 km/h (2 Bft) 97,87 %
27.03.2021 01:46 6,7 C 6,1 C 3,4 C 91 % 1013,8 hPa 0,0 l/m 0 min 2 min 0 W/m 12,9 km/h (3 Bft) 95,74 %
27.03.2021 01:48 6,6 C 5,6 C 3,4 C 91 % 1013,9 hPa 0,0 l/m 0 min 2 min 0 W/m 32,2 km/h (5 Bft) 97,87 %
27.03.2021 01:50 6,5 C 5,6 C 3,4 C 91 % 1013,9 hPa 0,0 l/m 0 min 2 min 0 W/m 16,1 km/h (3 Bft) 97,87 %
27.03.2021 01:52 6,5 C 5,6 C 3,4 C 91 % 1013,9 hPa 0,0 l/m 0 min 2 min 0 W/m 19,3 km/h (3 Bft) 97,83 %
27.03.2021 01:54 6,4 C 5,6 C 3,4 C 92 % 1014,0 hPa 0,0 l/m 0 min 2 min 0 W/m 16,1 km/h (3 Bft) 97,87 %
27.03.2021 01:56 6,4 C 5,6 C 3,4 C 92 % 1014,0 hPa 0,0 l/m 0 min 2 min 0 W/m 12,9 km/h (3 Bft) 97,87 %
27.03.2021 01:58 6,4 C 5,6 C 3,4 C 92 % 1014,1 hPa 0,0 l/m 0 min 2 min 0 W/m 12,9 km/h (3 Bft) 97,87 %
27.03.2021 02:00 6,4 C 5,6 C 3,4 C 92 % 1014,1 hPa 0,0 l/m 0 min 2 min 0 W/m 16,1 km/h (3 Bft) 93,62 %
27.03.2021 02:02 6,3 C 5,6 C 3,4 C 92 % 1014,1 hPa 0,0 l/m 0 min 2 min 0 W/m 16,1 km/h (3 Bft) 97,92 %
27.03.2021 02:04 6,3 C 5,6 C 3,4 C 92 % 1014,1 hPa 0,0 l/m 0 min 2 min 0 W/m 12,9 km/h (3 Bft) 97,83 %
27.03.2021 02:06 6,3 C 5,6 C 3,4 C 92 % 1014,1 hPa 0,2 l/m 0 min 2 min 0 W/m 19,3 km/h (3 Bft) 95,74 %
27.03.2021 02:08 6,2 C 5,6 C 3,4 C 92 % 1014,2 hPa 0,0 l/m 0 min 2 min 0 W/m 16,1 km/h (3 Bft) 95,74 %
27.03.2021 02:10 6,1 C 5,6 C 3,4 C 92 % 1014,3 hPa 0,0 l/m 0 min 2 min 0 W/m 22,5 km/h (4 Bft) 97,87 %
27.03.2021 02:12 6,1 C 5,6 C 3,4 C 92 % 1014,1 hPa 0,0 l/m 0 min 2 min 0 W/m 12,9 km/h (3 Bft) 95,74 %
27.03.2021 02:14 6,1 C 5,6 C 2,8 C 92 % 1014,1 hPa 0,0 l/m 0 min 2 min 0 W/m 12,9 km/h (3 Bft) 95,74 %
27.03.2021 02:16 6,0 C 5,6 C 2,8 C 92 % 1014,2 hPa 0,0 l/m 0 min 2 min 0 W/m 12,9 km/h (3 Bft) 95,65 %
27.03.2021 02:18 6,0 C 5,6 C 2,8 C 92 % 1014,1 hPa 0,2 l/m 0 min 2 min 0 W/m 6,4 km/h (2 Bft) 95,74 %
27.03.2021 02:20 6,0 C 5,6 C 2,8 C 92 % 1014,2 hPa 0,0 l/m 0 min 2 min 0 W/m 19,3 km/h (3 Bft) 95,74 %
27.03.2021 02:22 6,0 C 5,0 C 2,8 C 92 % 1014,3 hPa 0,0 l/m 0 min 2 min 0 W/m 12,9 km/h (3 Bft) 95,74 %
27.03.2021 02:24 5,9 C 5,0 C 2,8 C 92 % 1014,2 hPa 0,0 l/m 0 min 2 min 0 W/m 16,1 km/h (3 Bft) 95,74 %
27.03.2021 02:26 5,9 C 5,0 C 2,8 C 92 % 1014,2 hPa 0,0 l/m 0 min 2 min 0 W/m 12,9 km/h (3 Bft) 97,87 %
27.03.2021 02:28 5,9 C 5,0 C 2,8 C 92 % 1014,2 hPa 0,0 l/m 0 min 2 min 0 W/m 19,3 km/h (3 Bft) 97,83 %
27.03.2021 02:30 5,9 C 5,0 C 2,8 C 92 % 1014,1 hPa 0,0 l/m 0 min 2 min 0 W/m 19,3 km/h (3 Bft) 82,98 %
27.03.2021 02:32 5,9 C 5,0 C 2,8 C 92 % 1014,1 hPa 0,0 l/m 0 min 2 min 0 W/m 19,3 km/h (3 Bft) 66,67 %
27.03.2021 02:34 5,9 C 5,0 C 2,8 C 92 % 1014,1 hPa 0,0 l/m 0 min 2 min 0 W/m 16,1 km/h (3 Bft) 97,87 %
27.03.2021 02:36 5,9 C 5,0 C 2,8 C 93 % 1014,1 hPa 0,0 l/m 0 min 2 min 0 W/m 22,5 km/h (4 Bft) 97,87 %
27.03.2021 02:38 5,8 C 5,0 C 2,8 C 93 % 1014,2 hPa 0,0 l/m 0 min 0 min 0 W/m 29,0 km/h (5 Bft) 97,83 %
27.03.2021 02:40 5,8 C 5,0 C 2,8 C 93 % 1014,2 hPa 0,0 l/m 0 min 2 min 0 W/m 16,1 km/h (3 Bft) 93,62 %
27.03.2021 02:42 5,8 C 5,0 C 2,8 C 93 % 1014,2 hPa 0,0 l/m 0 min 0 min 0 W/m 12,9 km/h (3 Bft) 93,62 %
27.03.2021 02:44 5,8 C 5,0 C 2,8 C 93 % 1014,1 hPa 0,0 l/m 0 min 2 min 0 W/m 12,9 km/h (3 Bft) 97,73 %
27.03.2021 02:46 5,8 C 5,0 C 2,8 C 93 % 1014,2 hPa 0,0 l/m 0 min 2 min 0 W/m 22,5 km/h (4 Bft) 97,87 %
27.03.2021 02:48 5,8 C 5,0 C 2,8 C 93 % 1014,2 hPa 0,0 l/m 0 min 2 min 0 W/m 16,1 km/h (3 Bft) 97,87 %
27.03.2021 02:50 5,8 C 5,0 C 2,8 C 93 % 1014,2 hPa 0,0 l/m 0 min 2 min 0 W/m 16,1 km/h (3 Bft) 95,65 %
27.03.2021 02:52 5,7 C 5,0 C 2,8 C 93 % 1014,3 hPa 0,0 l/m 0 min 0 min 0 W/m 19,3 km/h (3 Bft) 100,00 %
27.03.2021 02:54 5,8 C 5,0 C 2,8 C 93 % 1014,4 hPa 0,0 l/m 0 min 0 min 0 W/m 16,1 km/h (3 Bft) 97,87 %
27.03.2021 02:56 5,7 C 5,0 C 2,8 C 93 % 1014,3 hPa 0,0 l/m 0 min 2 min 0 W/m 19,3 km/h (3 Bft) 95,74 %
27.03.2021 02:58 5,7 C 5,0 C 2,8 C 93 % 1014,3 hPa 0,0 l/m 0 min 2 min 0 W/m 29,0 km/h (5 Bft) 97,87 %
27.03.2021 03:00 5,6 C 5,0 C 2,8 C 93 % 1014,3 hPa 0,0 l/m 0 min 0 min 0 W/m 16,1 km/h (3 Bft) 97,87 %
27.03.2021 03:02 5,6 C 5,0 C 2,8 C 93 % 1014,4 hPa 0,0 l/m 0 min 2 min 0 W/m 16,1 km/h (3 Bft) 97,87 %
27.03.2021 03:04 5,7 C 5,0 C 3,4 C 93 % 1014,4 hPa 0,0 l/m 0 min 0 min 0 W/m 16,1 km/h (3 Bft) 100,00 %
27.03.2021 03:06 5,6 C 5,0 C 2,8 C 93 % 1014,5 hPa 0,0 l/m 0 min 2 min 0 W/m 22,5 km/h (4 Bft) 100,00 %
27.03.2021 03:08 5,7 C 5,0 C 2,8 C 93 % 1014,5 hPa 0,0 l/m 0 min 2 min 0 W/m 9,7 km/h (2 Bft) 100,00 %
27.03.2021 03:10 5,7 C 5,0 C 2,8 C 93 % 1014,6 hPa 0,0 l/m 0 min 2 min 0 W/m 19,3 km/h (3 Bft) 100,00 %
27.03.2021 03:12 5,7 C 5,0 C 3,4 C 93 % 1014,4 hPa 0,0 l/m 0 min 2 min 0 W/m 12,9 km/h (3 Bft) 100,00 %
27.03.2021 03:14 5,7 C 5,0 C 3,4 C 93 % 1014,4 hPa 0,0 l/m 0 min 2 min 0 W/m 12,9 km/h (3 Bft) 100,00 %
27.03.2021 03:16 5,7 C 5,0 C 3,4 C 93 % 1014,4 hPa 0,0 l/m 0 min 2 min 0 W/m 19,3 km/h (3 Bft) 100,00 %
27.03.2021 03:18 5,7 C 5,0 C 3,4 C 93 % 1014,4 hPa 0,0 l/m 0 min 2 min 0 W/m 6,4 km/h (2 Bft) 100,00 %
27.03.2021 03:20 5,7 C 5,0 C 3,4 C 93 % 1014,4 hPa 0,0 l/m 0 min 2 min 0 W/m 9,7 km/h (2 Bft) 93,62 %
27.03.2021 03:22 5,7 C 5,0 C 2,8 C 93 % 1014,4 hPa 0,0 l/m 0 min 2 min 0 W/m 12,9 km/h (3 Bft) 97,87 %
27.03.2021 03:24 5,7 C 5,0 C 2,8 C 93 % 1014,5 hPa 0,0 l/m 0 min 2 min 0 W/m 16,1 km/h (3 Bft) 95,74 %
27.03.2021 03:26 5,7 C 5,0 C 2,8 C 93 % 1014,5 hPa 0,0 l/m 0 min 2 min 0 W/m 12,9 km/h (3 Bft) 97,83 %
27.03.2021 03:28 5,7 C 5,0 C 2,8 C 93 % 1014,5 hPa 0,0 l/m 0 min 2 min 0 W/m 16,1 km/h (3 Bft) 97,87 %
27.03.2021 03:30 5,7 C 5,0 C 2,8 C 93 % 1014,4 hPa 0,0 l/m 0 min 2 min 0 W/m 19,3 km/h (3 Bft) 97,87 %
27.03.2021 03:32 5,7 C 5,0 C 2,8 C 93 % 1014,6 hPa 0,0 l/m 0 min 2 min 0 W/m 22,5 km/h (4 Bft) 97,87 %
27.03.2021 03:34 5,6 C 5,0 C 2,8 C 93 % 1014,6 hPa 0,0 l/m 0 min 2 min 0 W/m 25,7 km/h (4 Bft) 95,74 %
27.03.2021 03:36 5,6 C 5,0 C 2,8 C 93 % 1014,6 hPa 0,0 l/m 0 min 2 min 0 W/m 19,3 km/h (3 Bft) 100,00 %
27.03.2021 03:38 5,6 C 5,0 C 2,8 C 93 % 1014,5 hPa 0,0 l/m 0 min 0 min 0 W/m 16,1 km/h (3 Bft) 96,77 %
27.03.2021 03:40 5,6 C 5,0 C 2,8 C 93 % 1014,5 hPa 0,0 l/m 0 min 2 min 0 W/m 32,2 km/h (5 Bft) 95,74 %
27.03.2021 03:42 5,6 C 5,0 C 2,8 C 93 % 1014,6 hPa 0,0 l/m 0 min 2 min 0 W/m 25,7 km/h (4 Bft) 97,87 %
27.03.2021 03:44 5,6 C 5,0 C 2,8 C 93 % 1014,9 hPa 0,0 l/m 0 min 2 min 0 W/m 16,1 km/h (3 Bft) 93,62 %
27.03.2021 03:46 5,6 C 5,0 C 2,8 C 93 % 1014,7 hPa 0,0 l/m 0 min 0 min 0 W/m 32,2 km/h (5 Bft) 95,74 %
27.03.2021 03:48 5,6 C 5,0 C 2,8 C 93 % 1014,7 hPa 0,0 l/m 0 min 0 min 0 W/m 19,3 km/h (3 Bft) 97,83 %
27.03.2021 03:50 5,6 C 5,0 C 2,8 C 93 % 1014,9 hPa 0,0 l/m 0 min 0 min 0 W/m 19,3 km/h (3 Bft) 95,74 %
27.03.2021 03:52 5,6 C 5,0 C 2,8 C 93 % 1014,9 hPa 0,0 l/m 0 min 0 min 0 W/m 19,3 km/h (3 Bft) 97,87 %
27.03.2021 03:54 5,6 C 5,0 C 2,8 C 93 % 1014,9 hPa 0,0 l/m 0 min 0 min 0 W/m 19,3 km/h (3 Bft) 97,87 %
27.03.2021 03:56 5,6 C 5,0 C 2,8 C 93 % 1014,9 hPa 0,0 l/m 0 min 0 min 0 W/m 12,9 km/h (3 Bft) 97,87 %
27.03.2021 03:58 5,6 C 5,0 C 2,8 C 93 % 1015,0 hPa 0,0 l/m 0 min 0 min 0 W/m 12,9 km/h (3 Bft) 97,87 %
27.03.2021 04:00 5,5 C 5,0 C 2,8 C 92 % 1015,0 hPa 0,0 l/m 0 min 0 min 0 W/m 12,9 km/h (3 Bft) 97,83 %
27.03.2021 04:02 5,5 C 5,0 C 2,8 C 92 % 1014,9 hPa 0,0 l/m 0 min 0 min 0 W/m 16,1 km/h (3 Bft) 100,00 %
27.03.2021 04:04 5,5 C 5,0 C 2,8 C 92 % 1015,2 hPa 0,0 l/m 0 min 0 min 0 W/m 29,0 km/h (5 Bft) 93,62 %
27.03.2021 04:06 5,5 C 5,0 C 2,8 C 92 % 1015,1 hPa 0,0 l/m 0 min 0 min 0 W/m 19,3 km/h (3 Bft) 95,74 %
27.03.2021 04:08 5,5 C 5,0 C 2,8 C 92 % 1015,1 hPa 0,0 l/m 0 min 0 min 0 W/m 12,9 km/h (3 Bft) 97,87 %
27.03.2021 04:10 5,5 C 5,0 C 2,8 C 92 % 1015,1 hPa 0,0 l/m 0 min 0 min 0 W/m 22,5 km/h (4 Bft) 97,87 %
27.03.2021 04:12 5,5 C 5,0 C 2,8 C 92 % 1015,1 hPa 0,0 l/m 0 min 0 min 0 W/m 16,1 km/h (3 Bft) 97,83 %
27.03.2021 04:14 5,5 C 5,0 C 2,8 C 92 % 1015,2 hPa 0,0 l/m 0 min 0 min 0 W/m 12,9 km/h (3 Bft) 97,87 %
27.03.2021 04:16 5,5 C 5,0 C 2,8 C 92 % 1015,2 hPa 0,0 l/m 0 min 0 min 0 W/m 12,9 km/h (3 Bft) 97,87 %
27.03.2021 04:18 5,5 C 5,0 C 2,8 C 92 % 1015,2 hPa 0,0 l/m 0 min 0 min 0 W/m 22,5 km/h (4 Bft) 97,87 %
27.03.2021 04:20 5,5 C 5,0 C 2,8 C 92 % 1015,3 hPa 0,0 l/m 0 min 0 min 0 W/m 29,0 km/h (5 Bft) 100,00 %
27.03.2021 04:23 5,5 C 5,0 C 2,8 C 92 % 1015,2 hPa 0,0 l/m 0 min 0 min 0 W/m 16,1 km/h (3 Bft) 97,14 %
27.03.2021 04:24 5,5 C 5,0 C 2,8 C 92 % 1015,2 hPa 0,0 l/m 0 min 0 min 0 W/m 12,9 km/h (3 Bft) 91,30 %
27.03.2021 04:26 5,5 C 5,0 C 2,8 C 92 % 1015,3 hPa 0,0 l/m 0 min 0 min 0 W/m 25,7 km/h (4 Bft) 97,87 %
27.03.2021 04:28 5,5 C 5,0 C 2,8 C 92 % 1015,3 hPa 0,0 l/m 0 min 0 min 0 W/m 16,1 km/h (3 Bft) 100,00 %
27.03.2021 04:30 5,5 C 5,0 C 2,8 C 92 % 1015,3 hPa 0,0 l/m 0 min 0 min 0 W/m 19,3 km/h (3 Bft) 100,00 %
27.03.2021 04:32 5,5 C 5,0 C 2,8 C 92 % 1015,3 hPa 0,0 l/m 0 min 0 min 0 W/m 29,0 km/h (5 Bft) 100,00 %
27.03.2021 04:34 5,5 C 5,0 C 2,8 C 92 % 1015,4 hPa 0,0 l/m 0 min 0 min 0 W/m 25,7 km/h (4 Bft) 95,65 %
27.03.2021 04:36 5,5 C 5,0 C 2,8 C 92 % 1015,4 hPa 0,0 l/m 0 min 0 min 0 W/m 29,0 km/h (5 Bft) 100,00 %
27.03.2021 04:38 5,5 C 5,0 C 2,8 C 92 % 1015,5 hPa 0,0 l/m 0 min 0 min 0 W/m 22,5 km/h (4 Bft) 100,00 %
27.03.2021 04:40 5,5 C 5,0 C 2,8 C 92 % 1015,5 hPa 0,0 l/m 0 min 0 min 0 W/m 25,7 km/h (4 Bft) 97,87 %
27.03.2021 04:42 5,5 C 5,0 C 2,8 C 92 % 1015,5 hPa 0,0 l/m 0 min 0 min 0 W/m 16,1 km/h (3 Bft) 95,74 %
27.03.2021 04:44 5,5 C 5,0 C 2,8 C 92 % 1015,5 hPa 0,0 l/m 0 min 0 min 0 W/m 16,1 km/h (3 Bft) 55,32 %
27.03.2021 04:46 5,5 C 5,0 C 2,8 C 92 % 1015,5 hPa 0,0 l/m 0 min 0 min 0 W/m 16,1 km/h (3 Bft) 97,83 %
27.03.2021 04:48 5,5 C 5,0 C 2,8 C 92 % 1015,5 hPa 0,0 l/m 0 min 0 min 0 W/m 16,1 km/h (3 Bft) 97,50 %
27.03.2021 04:50 5,5 C 5,0 C 2,8 C 92 % 1015,6 hPa 0,0 l/m 0 min 0 min 0 W/m 22,5 km/h (4 Bft) 97,87 %
27.03.2021 04:52 5,5 C 5,0 C 2,8 C 92 % 1015,6 hPa 0,0 l/m 0 min 0 min 0 W/m 22,5 km/h (4 Bft) 97,87 %
27.03.2021 04:54 5,5 C 5,0 C 2,8 C 92 % 1015,5 hPa 0,0 l/m 0 min 0 min 0 W/m 16,1 km/h (3 Bft) 97,87 %
27.03.2021 04:56 5,5 C 5,0 C 2,8 C 91 % 1015,5 hPa 0,0 l/m 0 min 0 min 0 W/m 19,3 km/h (3 Bft) 97,87 %
27.03.2021 04:58 5,5 C 5,0 C 2,8 C 91 % 1015,6 hPa 0,0 l/m 0 min 0 min 0 W/m 12,9 km/h (3 Bft) 95,65 %
27.03.2021 05:00 5,5 C 5,0 C 2,8 C 91 % 1015,6 hPa 0,0 l/m 0 min 0 min 0 W/m 16,1 km/h (3 Bft) 95,74 %
27.03.2021 05:02 5,5 C 5,0 C 2,8 C 91 % 1015,6 hPa 0,0 l/m 0 min 0 min 0 W/m 16,1 km/h (3 Bft) 97,87 %
27.03.2021 05:04 5,5 C 5,0 C 2,8 C 91 % 1015,5 hPa 0,0 l/m 0 min 0 min 0 W/m 16,1 km/h (3 Bft) 97,87 %
27.03.2021 05:06 5,5 C 5,0 C 2,8 C 91 % 1015,5 hPa 0,0 l/m 0 min 0 min 0 W/m 19,3 km/h (3 Bft) 97,87 %
27.03.2021 05:08 5,5 C 5,0 C 2,8 C 91 % 1015,5 hPa 0,0 l/m 0 min 0 min 0 W/m 22,5 km/h (4 Bft) 97,92 %
27.03.2021 05:10 5,5 C 5,0 C 2,8 C 91 % 1015,6 hPa 0,0 l/m 0 min 0 min 0 W/m 16,1 km/h (3 Bft) 97,83 %
27.03.2021 05:12 5,5 C 5,0 C 2,8 C 91 % 1015,6 hPa 0,0 l/m 0 min 0 min 0 W/m 16,1 km/h (3 Bft) 95,74 %
27.03.2021 05:14 5,5 C 5,0 C 2,8 C 90 % 1015,6 hPa 0,0 l/m 0 min 0 min 0 W/m 16,1 km/h (3 Bft) 97,87 %
27.03.2021 05:16 5,5 C 5,0 C 2,8 C 90 % 1015,6 hPa 0,0 l/m 0 min 0 min 0 W/m 22,5 km/h (4 Bft) 97,87 %
27.03.2021 05:18 5,5 C 5,0 C 2,8 C 90 % 1015,7 hPa 0,0 l/m 0 min 0 min 0 W/m 19,3 km/h (3 Bft) 97,87 %
27.03.2021 05:20 5,5 C 5,0 C 2,8 C 90 % 1015,6 hPa 0,0 l/m 0 min 0 min 0 W/m 19,3 km/h (3 Bft) 100,00 %
27.03.2021 05:22 5,5 C 5,0 C 2,8 C 90 % 1015,6 hPa 0,0 l/m 0 min 0 min 0 W/m 16,1 km/h (3 Bft) 97,83 %
27.03.2021 05:24 5,4 C 5,0 C 2,8 C 90 % 1015,6 hPa 0,0 l/m 0 min 0 min 0 W/m 25,7 km/h (4 Bft) 97,87 %
27.03.2021 05:26 5,4 C 4,4 C 2,8 C 90 % 1015,6 hPa 0,0 l/m 0 min 0 min 0 W/m 12,9 km/h (3 Bft) 97,87 %
27.03.2021 05:28 5,4 C 4,4 C 2,8 C 90 % 1015,7 hPa 0,0 l/m 0 min 0 min 0 W/m 22,5 km/h (4 Bft) 95,74 %
27.03.2021 05:30 5,4 C 4,4 C 2,8 C 90 % 1015,6 hPa 0,0 l/m 0 min 0 min 0 W/m 12,9 km/h (3 Bft) 100,00 %
27.03.2021 05:32 5,4 C 4,4 C 2,8 C 90 % 1015,6 hPa 0,0 l/m 0 min 0 min 0 W/m 22,5 km/h (4 Bft) 91,49 %
27.03.2021 05:34 5,4 C 4,4 C 2,8 C 90 % 1015,6 hPa 0,0 l/m 0 min 0 min 0 W/m 25,7 km/h (4 Bft) 97,83 %
27.03.2021 05:36 5,4 C 4,4 C 2,8 C 90 % 1015,7 hPa 0,0 l/m 0 min 0 min 0 W/m 16,1 km/h (3 Bft) 97,87 %
27.03.2021 05:38 5,4 C 4,4 C 2,8 C 90 % 1015,8 hPa 0,0 l/m 0 min 0 min 0 W/m 16,1 km/h (3 Bft) 100,00 %
27.03.2021 05:40 5,4 C 4,4 C 2,8 C 90 % 1015,7 hPa 0,0 l/m 0 min 0 min 0 W/m 29,0 km/h (5 Bft) 97,87 %
27.03.2021 05:42 5,4 C 4,4 C 2,8 C 90 % 1015,8 hPa 0,0 l/m 0 min 0 min 0 W/m 32,2 km/h (5 Bft) 97,87 %
27.03.2021 05:44 5,4 C 4,4 C 2,8 C 90 % 1015,9 hPa 0,0 l/m 0 min 0 min 0 W/m 22,5 km/h (4 Bft) 100,00 %
27.03.2021 05:46 5,4 C 4,4 C 2,8 C 90 % 1015,9 hPa 0,0 l/m 0 min 0 min 0 W/m 16,1 km/h (3 Bft) 100,00 %
27.03.2021 05:48 5,4 C 4,4 C 2,8 C 90 % 1015,9 hPa 0,0 l/m 0 min 0 min 0 W/m 22,5 km/h (4 Bft) 100,00 %
27.03.2021 05:50 5,4 C 5,0 C 2,8 C 90 % 1016,0 hPa 0,0 l/m 0 min 0 min 0 W/m 19,3 km/h (3 Bft) 97,87 %
27.03.2021 05:52 5,4 C 5,0 C 2,8 C 90 % 1016,0 hPa 0,0 l/m 0 min 0 min 0 W/m 16,1 km/h (3 Bft) 100,00 %
27.03.2021 05:54 5,4 C 5,0 C 2,8 C 90 % 1016,1 hPa 0,0 l/m 0 min 0 min 0 W/m 19,3 km/h (3 Bft) 97,87 %
27.03.2021 05:56 5,4 C 5,0 C 2,8 C 90 % 1016,1 hPa 0,0 l/m 0 min 0 min 0 W/m 19,3 km/h (3 Bft) 100,00 %
27.03.2021 05:58 5,4 C 5,0 C 2,8 C 90 % 1016,2 hPa 0,0 l/m 0 min 0 min 0 W/m 16,1 km/h (3 Bft) 100,00 %
27.03.2021 06:00 5,4 C 5,0 C 3,4 C 90 % 1016,2 hPa 0,0 l/m 0 min 0 min 0 W/m 25,7 km/h (4 Bft) 100,00 %
27.03.2021 06:02 5,4 C 5,0 C 3,4 C 90 % 1016,2 hPa 0,0 l/m 0 min 0 min 0 W/m 22,5 km/h (4 Bft) 98,11 %
27.03.2021 06:04 5,5 C 5,0 C 3,4 C 89 % 1016,1 hPa 0,0 l/m 0 min 0 min 0 W/m 19,3 km/h (3 Bft) 100,00 %
27.03.2021 06:06 5,5 C 5,0 C 3,4 C 89 % 1016,2 hPa 0,0 l/m 0 min 0 min 0 W/m 22,5 km/h (4 Bft) 100,00 %
27.03.2021 06:08 5,5 C 5,0 C 3,4 C 89 % 1016,2 hPa 0,0 l/m 0 min 0 min 0 W/m 12,9 km/h (3 Bft) 100,00 %
27.03.2021 06:10 5,5 C 5,0 C 3,4 C 89 % 1016,2 hPa 0,0 l/m 0 min 0 min 0 W/m 29,0 km/h (5 Bft) 100,00 %
27.03.2021 06:12 5,5 C 5,0 C 3,4 C 89 % 1016,1 hPa 0,0 l/m 0 min 0 min 0 W/m 25,7 km/h (4 Bft) 100,00 %
27.03.2021 06:14 5,5 C 5,0 C 3,4 C 89 % 1016,1 hPa 0,0 l/m 0 min 0 min 0 W/m 32,2 km/h (5 Bft) 100,00 %
27.03.2021 06:16 5,5 C 5,0 C 3,4 C 89 % 1016,2 hPa 0,0 l/m 0 min 0 min 0 W/m 35,4 km/h (5 Bft) 100,00 %
27.03.2021 06:18 5,5 C 5,0 C 3,4 C 89 % 1016,2 hPa 0,0 l/m 0 min 0 min 0 W/m 32,2 km/h (5 Bft) 100,00 %
27.03.2021 06:20 5,5 C 5,0 C 3,4 C 89 % 1016,2 hPa 0,0 l/m 0 min 0 min 0 W/m 19,3 km/h (3 Bft) 100,00 %
27.03.2021 06:22 5,5 C 5,0 C 3,4 C 88 % 1016,2 hPa 0,0 l/m 0 min 0 min 0 W/m 29,0 km/h (5 Bft) 100,00 %
27.03.2021 06:24 5,6 C 5,0 C 3,4 C 88 % 1016,2 hPa 0,0 l/m 0 min 0 min 4 W/m 25,7 km/h (4 Bft) 100,00 %
27.03.2021 06:26 5,6 C 5,0 C 3,4 C 88 % 1016,2 hPa 0,0 l/m 0 min 0 min 6 W/m 29,0 km/h (5 Bft) 100,00 %
27.03.2021 06:28 5,6 C 5,0 C 3,4 C 88 % 1016,2 hPa 0,0 l/m 0 min 0 min 7 W/m 22,5 km/h (4 Bft) 100,00 %
27.03.2021 06:30 5,6 C 5,0 C 3,4 C 88 % 1016,1 hPa 0,0 l/m 0 min 0 min 9 W/m 32,2 km/h (5 Bft) 100,00 %
27.03.2021 06:32 5,6 C 5,0 C 3,4 C 88 % 1016,3 hPa 0,0 l/m 0 min 0 min 9 W/m 22,5 km/h (4 Bft) 97,56 %
27.03.2021 06:34 5,6 C 5,0 C 3,4 C 88 % 1016,2 hPa 0,0 l/m 0 min 0 min 9 W/m 19,3 km/h (3 Bft) 100,00 %
27.03.2021 06:36 5,6 C 5,0 C 3,4 C 88 % 1016,2 hPa 0,0 l/m 0 min 0 min 11 W/m 35,4 km/h (5 Bft) 100,00 %
27.03.2021 06:38 5,7 C 5,0 C 3,4 C 88 % 1016,4 hPa 0,0 l/m 0 min 0 min 13 W/m 19,3 km/h (3 Bft) 100,00 %
27.03.2021 06:40 5,7 C 5,0 C 3,4 C 88 % 1016,4 hPa 0,0 l/m 0 min 0 min 15 W/m 22,5 km/h (4 Bft) 100,00 %
27.03.2021 06:42 5,7 C 5,0 C 3,4 C 88 % 1016,4 hPa 0,0 l/m 0 min 0 min 17 W/m 16,1 km/h (3 Bft) 93,62 %
27.03.2021 06:44 5,7 C 5,6 C 3,4 C 88 % 1016,3 hPa 0,0 l/m 0 min 0 min 19 W/m 22,5 km/h (4 Bft) 100,00 %
27.03.2021 06:46 5,7 C 5,6 C 3,4 C 88 % 1016,4 hPa 0,0 l/m 0 min 0 min 20 W/m 25,7 km/h (4 Bft) 97,56 %
27.03.2021 06:50 5,8 C 5,6 C 3,4 C 88 % 1016,4 hPa 0,0 l/m 0 min 0 min 26 W/m 12,9 km/h (3 Bft) 82,61 %
27.03.2021 06:52 5,8 C 5,6 C 3,4 C 88 % 1016,5 hPa 0,0 l/m 0 min 0 min 33 W/m 29,0 km/h (5 Bft) 93,22 %
27.03.2021 06:54 5,8 C 5,6 C 3,4 C 88 % 1016,5 hPa 0,0 l/m 2 min 0 min 40 W/m 29,0 km/h (5 Bft) 85,11 %
27.03.2021 06:56 5,8 C 5,6 C 3,9 C 88 % 1016,4 hPa 0,0 l/m 2 min 0 min 49 W/m 16,1 km/h (3 Bft) 82,98 %
27.03.2021 06:58 5,8 C 5,6 C 3,9 C 88 % 1016,5 hPa 0,0 l/m 2 min 0 min 56 W/m 32,2 km/h (5 Bft) 86,96 %
27.03.2021 07:00 5,9 C 5,6 C 3,9 C 88 % 1016,5 hPa 0,0 l/m 2 min 0 min 62 W/m 19,3 km/h (3 Bft) 68,09 %
27.03.2021 07:02 5,9 C 5,6 C 3,9 C 88 % 1016,6 hPa 0,0 l/m 2 min 0 min 62 W/m 19,3 km/h (3 Bft) 82,98 %
27.03.2021 07:04 5,9 C 5,6 C 3,9 C 88 % 1016,6 hPa 0,0 l/m 2 min 0 min 68 W/m 22,5 km/h (4 Bft) 91,49 %
27.03.2021 07:06 5,9 C 5,6 C 3,9 C 88 % 1016,5 hPa 0,0 l/m 2 min 0 min 70 W/m 19,3 km/h (3 Bft) 85,11 %
27.03.2021 07:08 5,9 C 5,6 C 3,9 C 88 % 1016,6 hPa 0,0 l/m 2 min 0 min 71 W/m 22,5 km/h (4 Bft) 84,78 %
27.03.2021 07:10 5,9 C 5,6 C 3,9 C 88 % 1016,6 hPa 0,0 l/m 2 min 0 min 71 W/m 19,3 km/h (3 Bft) 91,49 %
27.03.2021 07:12 6,0 C 5,6 C 3,9 C 88 % 1016,7 hPa 0,0 l/m 2 min 0 min 73 W/m 22,5 km/h (4 Bft) 93,62 %
27.03.2021 07:14 6,0 C 5,6 C 3,9 C 88 % 1016,6 hPa 0,0 l/m 2 min 0 min 71 W/m 19,3 km/h (3 Bft) 95,74 %
27.03.2021 07:16 6,0 C 6,1 C 3,9 C 88 % 1016,6 hPa 0,0 l/m 2 min 0 min 69 W/m 19,3 km/h (3 Bft) 87,23 %
27.03.2021 07:18 6,1 C 6,1 C 3,9 C 88 % 1016,7 hPa 0,0 l/m 0 min 0 min 66 W/m 16,1 km/h (3 Bft) 87,23 %
27.03.2021 07:20 6,1 C 6,1 C 3,9 C 88 % 1016,7 hPa 0,0 l/m 0 min 0 min 58 W/m 25,7 km/h (4 Bft) 86,96 %
27.03.2021 07:22 6,1 C 6,1 C 3,9 C 88 % 1016,8 hPa 0,0 l/m 0 min 0 min 54 W/m 22,5 km/h (4 Bft) 80,56 %
27.03.2021 07:24 6,1 C 5,6 C 3,9 C 88 % 1016,8 hPa 0,0 l/m 0 min 2 min 41 W/m 29,0 km/h (5 Bft) 82,61 %
27.03.2021 07:26 6,1 C 5,6 C 3,9 C 88 % 1016,9 hPa 0,0 l/m 0 min 2 min 40 W/m 35,4 km/h (5 Bft) 81,36 %
27.03.2021 07:28 6,1 C 5,6 C 3,9 C 88 % 1017,0 hPa 0,0 l/m 0 min 2 min 42 W/m 35,4 km/h (5 Bft) 87,23 %
27.03.2021 07:30 6,1 C 5,6 C 3,9 C 88 % 1016,8 hPa 0,0 l/m 0 min 2 min 39 W/m 29,0 km/h (5 Bft) 91,49 %
27.03.2021 07:32 6,1 C 5,6 C 3,9 C 88 % 1016,9 hPa 0,0 l/m 0 min 2 min 38 W/m 22,5 km/h (4 Bft) 94,29 %
27.03.2021 07:34 6,1 C 5,6 C 3,9 C 88 % 1017,0 hPa 0,0 l/m 0 min 2 min 35 W/m 38,6 km/h (5 Bft) 93,62 %
27.03.2021 07:36 6,0 C 5,6 C 3,9 C 88 % 1017,0 hPa 0,0 l/m 0 min 2 min 33 W/m 38,6 km/h (5 Bft) 93,48 %
27.03.2021 07:38 6,0 C 5,6 C 3,4 C 88 % 1017,1 hPa 0,0 l/m 0 min 2 min 33 W/m 22,5 km/h (4 Bft) 91,53 %
27.03.2021 07:40 6,0 C 5,6 C 3,4 C 88 % 1017,2 hPa 0,0 l/m 0 min 2 min 23 W/m 45,1 km/h (6 Bft) 97,14 %
27.03.2021 07:42 5,9 C 5,6 C 3,4 C 88 % 1017,1 hPa 0,0 l/m 0 min 2 min 43 W/m 29,0 km/h (5 Bft) 95,74 %
27.03.2021 07:44 5,9 C 5,6 C 3,4 C 88 % 1017,2 hPa 0,0 l/m 0 min 2 min 57 W/m 25,7 km/h (4 Bft) 97,87 %
27.03.2021 07:46 5,8 C 5,0 C 3,4 C 88 % 1017,2 hPa 0,0 l/m 0 min 2 min 42 W/m 29,0 km/h (5 Bft) 97,87 %
27.03.2021 07:48 5,8 C 5,0 C 3,4 C 89 % 1017,2 hPa 0,0 l/m 0 min 2 min 50 W/m 16,1 km/h (3 Bft) 97,83 %
27.03.2021 07:50 5,8 C 5,6 C 3,4 C 89 % 1017,3 hPa 0,0 l/m 0 min 2 min 61 W/m 22,5 km/h (4 Bft) 97,87 %
27.03.2021 07:52 5,7 C 5,6 C 3,4 C 89 % 1017,2 hPa 0,0 l/m 0 min 2 min 64 W/m 25,7 km/h (4 Bft) 97,87 %
27.03.2021 07:54 5,7 C 5,6 C 3,4 C 89 % 1017,2 hPa 0,0 l/m 0 min 2 min 69 W/m 12,9 km/h (3 Bft) 98,31 %
27.03.2021 07:56 5,7 C 5,6 C 3,4 C 89 % 1017,3 hPa 0,0 l/m 0 min 0 min 73 W/m 25,7 km/h (4 Bft) 97,83 %
27.03.2021 07:58 5,7 C 5,6 C 3,4 C 89 % 1017,3 hPa 0,0 l/m 0 min 2 min 77 W/m 22,5 km/h (4 Bft) 97,87 %
27.03.2021 08:00 5,7 C 5,6 C 3,4 C 89 % 1017,5 hPa 0,0 l/m 0 min 0 min 72 W/m 29,0 km/h (5 Bft) 97,14 %
27.03.2021 08:02 5,7 C 5,6 C 3,4 C 89 % 1017,6 hPa 0,0 l/m 0 min 0 min 53 W/m 19,3 km/h (3 Bft) 97,87 %
27.03.2021 08:04 5,7 C 5,6 C 3,4 C 89 % 1017,6 hPa 0,0 l/m 0 min 0 min 47 W/m 32,2 km/h (5 Bft) 100,00 %
27.03.2021 08:06 5,7 C 5,6 C 3,4 C 89 % 1017,6 hPa 0,0 l/m 0 min 0 min 44 W/m 25,7 km/h (4 Bft) 97,87 %
27.03.2021 08:08 5,7 C 5,6 C 3,9 C 89 % 1017,6 hPa 0,0 l/m 0 min 0 min 47 W/m 16,1 km/h (3 Bft) 80,85 %
27.03.2021 08:10 5,7 C 5,6 C 3,9 C 88 % 1017,8 hPa 0,0 l/m 0 min 0 min 45 W/m 16,1 km/h (3 Bft) 70,73 %
27.03.2021 08:12 5,7 C 5,6 C 3,9 C 88 % 1017,8 hPa 0,0 l/m 0 min 0 min 32 W/m 22,5 km/h (4 Bft) 97,87 %
27.03.2021 08:14 5,7 C 5,6 C 3,9 C 88 % 1017,8 hPa 0,0 l/m 0 min 0 min 34 W/m 19,3 km/h (3 Bft) 97,87 %
27.03.2021 08:16 5,7 C 5,6 C 3,4 C 88 % 1017,9 hPa 0,0 l/m 0 min 2 min 34 W/m 35,4 km/h (5 Bft) 95,74 %
27.03.2021 08:18 5,7 C 5,0 C 3,4 C 88 % 1017,9 hPa 0,0 l/m 0 min 2 min 22 W/m 22,5 km/h (4 Bft) 97,87 %
27.03.2021 08:20 5,6 C 5,0 C 3,4 C 89 % 1017,9 hPa 0,2 l/m 0 min 2 min 16 W/m 22,5 km/h (4 Bft) 97,87 %
27.03.2021 08:22 5,6 C 5,0 C 2,8 C 89 % 1017,9 hPa 0,0 l/m 0 min 2 min 19 W/m 12,9 km/h (3 Bft) 97,83 %
27.03.2021 08:24 5,5 C 5,0 C 2,8 C 89 % 1017,9 hPa 0,0 l/m 0 min 2 min 22 W/m 22,5 km/h (4 Bft) 95,74 %
27.03.2021 08:26 5,5 C 5,0 C 2,8 C 89 % 1017,8 hPa 0,0 l/m 0 min 2 min 26 W/m 32,2 km/h (5 Bft) 97,87 %
27.03.2021 08:28 5,5 C 5,0 C 2,8 C 89 % 1018,0 hPa 0,0 l/m 0 min 2 min 32 W/m 32,2 km/h (5 Bft) 97,87 %
27.03.2021 08:30 5,4 C 5,0 C 2,8 C 89 % 1018,0 hPa 0,0 l/m 0 min 2 min 30 W/m 48,3 km/h (6 Bft) 100,00 %
27.03.2021 08:32 5,4 C 5,0 C 2,8 C 89 % 1018,1 hPa 0,0 l/m 0 min 2 min 27 W/m 19,3 km/h (3 Bft) 100,00 %
27.03.2021 08:34 5,4 C 5,0 C 2,8 C 89 % 1018,1 hPa 0,0 l/m 0 min 0 min 53 W/m 22,5 km/h (4 Bft) 100,00 %
27.03.2021 08:36 5,4 C 5,0 C 2,8 C 89 % 1018,2 hPa 0,0 l/m 0 min 2 min 91 W/m 19,3 km/h (3 Bft) 100,00 %
27.03.2021 08:38 5,4 C 5,0 C 2,8 C 89 % 1018,2 hPa 0,0 l/m 0 min 0 min 114 W/m 22,5 km/h (4 Bft) 93,62 %
27.03.2021 08:40 5,4 C 5,6 C 3,4 C 89 % 1018,1 hPa 0,0 l/m 0 min 2 min 146 W/m 29,0 km/h (5 Bft) 100,00 %
27.03.2021 08:42 5,4 C 5,6 C 3,4 C 88 % 1018,2 hPa 0,0 l/m 0 min 0 min 159 W/m 45,1 km/h (6 Bft) 100,00 %
27.03.2021 08:44 5,4 C 6,1 C 3,4 C 88 % 1018,1 hPa 0,0 l/m 0 min 0 min 174 W/m 35,4 km/h (5 Bft) 100,00 %
27.03.2021 08:46 5,5 C 6,1 C 3,4 C 88 % 1018,1 hPa 0,0 l/m 2 min 0 min 299 W/m 25,7 km/h (4 Bft) 100,00 %
27.03.2021 08:48 5,6 C 6,7 C 3,4 C 87 % 1018,0 hPa 0,0 l/m 2 min 0 min 329 W/m 32,2 km/h (5 Bft) 100,00 %
27.03.2021 08:50 5,7 C 6,7 C 3,9 C 87 % 1018,1 hPa 0,0 l/m 2 min 0 min 425 W/m 29,0 km/h (5 Bft) 100,00 %
27.03.2021 08:52 5,9 C 7,2 C 4,5 C 87 % 1018,1 hPa 0,0 l/m 2 min 0 min 349 W/m 19,3 km/h (3 Bft) 100,00 %
27.03.2021 08:54 6,0 C 6,7 C 4,5 C 87 % 1018,2 hPa 0,0 l/m 2 min 0 min 235 W/m 29,0 km/h (5 Bft) 100,00 %
27.03.2021 08:56 6,0 C 6,7 C 4,5 C 87 % 1018,2 hPa 0,0 l/m 2 min 0 min 199 W/m 22,5 km/h (4 Bft) 100,00 %
27.03.2021 08:58 6,0 C 6,7 C 4,5 C 86 % 1018,2 hPa 0,0 l/m 0 min 0 min 193 W/m 29,0 km/h (5 Bft) 100,00 %
27.03.2021 09:00 6,0 C 7,2 C 5,0 C 86 % 1018,3 hPa 0,0 l/m 2 min 0 min 251 W/m 25,7 km/h (4 Bft) 100,00 %
27.03.2021 09:02 6,1 C 7,8 C 5,6 C 86 % 1018,3 hPa 0,0 l/m 2 min 0 min 286 W/m 25,7 km/h (4 Bft) 100,00 %
27.03.2021 09:04 6,1 C 7,8 C 5,0 C 85 % 1018,5 hPa 0,0 l/m 2 min 0 min 247 W/m 29,0 km/h (5 Bft) 100,00 %
27.03.2021 09:06 6,1 C 7,8 C 5,6 C 85 % 1018,6 hPa 0,0 l/m 0 min 0 min 160 W/m 19,3 km/h (3 Bft) 97,87 %
27.03.2021 09:08 6,1 C 7,2 C 5,6 C 85 % 1018,6 hPa 0,0 l/m 2 min 0 min 255 W/m 25,7 km/h (4 Bft) 98,28 %
27.03.2021 09:10 6,1 C 6,7 C 5,0 C 85 % 1018,6 hPa 0,0 l/m 0 min 0 min 147 W/m 38,6 km/h (5 Bft) 100,00 %
27.03.2021 09:12 6,1 C 7,8 C 6,7 C 85 % 1018,7 hPa 0,0 l/m 0 min 0 min 134 W/m 32,2 km/h (5 Bft) 100,00 %
27.03.2021 09:14 6,3 C 8,3 C 7,3 C 85 % 1018,6 hPa 0,0 l/m 2 min 0 min 286 W/m 25,7 km/h (4 Bft) 100,00 %
27.03.2021 09:16 6,4 C 9,4 C 8,4 C 85 % 1018,8 hPa 0,0 l/m 2 min 0 min 374 W/m 25,7 km/h (4 Bft) 97,87 %
27.03.2021 09:18 6,5 C 10,0 C 8,9 C 85 % 1018,8 hPa 0,0 l/m 2 min 0 min 426 W/m 22,5 km/h (4 Bft) 100,00 %
27.03.2021 09:20 6,6 C 10,0 C 8,4 C 85 % 1018,8 hPa 0,0 l/m 2 min 0 min 421 W/m 25,7 km/h (4 Bft) 100,00 %
27.03.2021 09:22 6,8 C 9,4 C 7,8 C 84 % 1018,8 hPa 0,0 l/m 2 min 0 min 225 W/m 25,7 km/h (4 Bft) 100,00 %
27.03.2021 09:24 6,8 C 9,4 C 7,8 C 84 % 1018,9 hPa 0,0 l/m 2 min 0 min 254 W/m 16,1 km/h (3 Bft) 100,00 %
27.03.2021 09:26 6,9 C 9,4 C 8,4 C 84 % 1018,9 hPa 0,0 l/m 2 min 0 min 360 W/m 22,5 km/h (4 Bft) 97,87 %
27.03.2021 09:28 6,9 C 10,0 C 8,4 C 84 % 1018,9 hPa 0,0 l/m 2 min 0 min 584 W/m 19,3 km/h (3 Bft) 100,00 %
27.03.2021 09:30 7,0 C 8,9 C 7,8 C 83 % 1019,0 hPa 0,0 l/m 2 min 0 min 262 W/m 22,5 km/h (4 Bft) 100,00 %
27.03.2021 09:32 7,0 C 8,3 C 7,3 C 83 % 1019,0 hPa 0,0 l/m 0 min 0 min 225 W/m 22,5 km/h (4 Bft) 100,00 %
27.03.2021 09:34 7,0 C 8,9 C 7,3 C 83 % 1019,1 hPa 0,0 l/m 0 min 0 min 229 W/m 12,9 km/h (3 Bft) 100,00 %
27.03.2021 09:36 7,1 C 8,9 C 7,3 C 84 % 1019,1 hPa 0,0 l/m 2 min 0 min 250 W/m 32,2 km/h (5 Bft) 100,00 %
27.03.2021 09:38 7,0 C 8,3 C 6,7 C 82 % 1019,1 hPa 0,0 l/m 0 min 0 min 210 W/m 22,5 km/h (4 Bft) 97,87 %
27.03.2021 09:40 7,0 C 7,8 C 6,7 C 82 % 1019,2 hPa 0,0 l/m 0 min 0 min 194 W/m 29,0 km/h (5 Bft) 95,74 %
27.03.2021 09:42 6,9 C 7,2 C 6,1 C 82 % 1019,2 hPa 0,0 l/m 0 min 0 min 135 W/m 32,2 km/h (5 Bft) 97,87 %
27.03.2021 09:44 6,9 C 7,2 C 6,1 C 82 % 1019,2 hPa 0,0 l/m 0 min 0 min 158 W/m 25,7 km/h (4 Bft) 97,83 %
27.03.2021 09:46 6,8 C 7,2 C 5,6 C 82 % 1019,3 hPa 0,0 l/m 0 min 0 min 150 W/m 29,0 km/h (5 Bft) 97,87 %
27.03.2021 09:48 6,8 C 7,8 C 6,1 C 82 % 1019,3 hPa 0,0 l/m 0 min 0 min 180 W/m 22,5 km/h (4 Bft) 95,74 %
27.03.2021 09:50 6,8 C 7,8 C 6,7 C 82 % 1019,3 hPa 0,0 l/m 2 min 0 min 252 W/m 22,5 km/h (4 Bft) 97,87 %
27.03.2021 09:52 6,8 C 7,8 C 6,7 C 82 % 1019,4 hPa 0,0 l/m 0 min 0 min 187 W/m 19,3 km/h (3 Bft) 95,74 %
27.03.2021 09:54 6,8 C 7,8 C 6,7 C 83 % 1019,4 hPa 0,0 l/m 0 min 0 min 192 W/m 35,4 km/h (5 Bft) 97,87 %
27.03.2021 09:56 6,8 C 7,8 C 6,7 C 82 % 1019,5 hPa 0,0 l/m 0 min 0 min 191 W/m 25,7 km/h (4 Bft) 95,65 %
27.03.2021 09:58 6,9 C 8,3 C 7,3 C 82 % 1019,6 hPa 0,0 l/m 2 min 0 min 433 W/m 19,3 km/h (3 Bft) 91,49 %
27.03.2021 10:00 7,0 C 8,9 C 7,3 C 82 % 1019,6 hPa 0,0 l/m 2 min 0 min 539 W/m 29,0 km/h (5 Bft) 97,87 %
27.03.2021 10:02 7,1 C 8,9 C 7,3 C 81 % 1019,7 hPa 0,0 l/m 2 min 0 min 520 W/m 29,0 km/h (5 Bft) 95,74 %
27.03.2021 10:04 7,1 C 8,3 C 6,7 C 81 % 1019,6 hPa 0,0 l/m 0 min 0 min 243 W/m 35,4 km/h (5 Bft) 97,92 %
27.03.2021 10:06 7,2 C 8,3 C 6,7 C 81 % 1019,6 hPa 0,0 l/m 0 min 0 min 219 W/m 12,9 km/h (3 Bft) 96,23 %
27.03.2021 10:08 7,2 C 8,3 C 6,7 C 81 % 1019,7 hPa 0,0 l/m 0 min 0 min 181 W/m 25,7 km/h (4 Bft) 96,00 %
27.03.2021 10:10 7,3 C 8,9 C 7,3 C 81 % 1019,7 hPa 0,0 l/m 2 min 0 min 437 W/m 19,3 km/h (3 Bft) 93,62 %
27.03.2021 10:12 7,4 C 9,4 C 8,9 C 81 % 1019,6 hPa 0,0 l/m 2 min 0 min 637 W/m 25,7 km/h (4 Bft) 95,74 %
27.03.2021 10:14 7,6 C 10,0 C 9,5 C 79 % 1019,7 hPa 0,0 l/m 2 min 0 min 647 W/m 29,0 km/h (5 Bft) 95,74 %
27.03.2021 10:16 7,8 C 10,6 C 10,0 C 79 % 1019,6 hPa 0,0 l/m 2 min 0 min 694 W/m 22,5 km/h (4 Bft) 93,48 %
27.03.2021 10:18 7,9 C 10,6 C 10,0 C 78 % 1019,7 hPa 0,0 l/m 2 min 0 min 701 W/m 25,7 km/h (4 Bft) 95,74 %
27.03.2021 10:20 8,1 C 10,6 C 10,0 C 77 % 1019,7 hPa 0,0 l/m 2 min 0 min 719 W/m 32,2 km/h (5 Bft) 93,62 %
27.03.2021 10:22 8,1 C 10,0 C 10,0 C 76 % 1019,8 hPa 0,0 l/m 2 min 0 min 689 W/m 29,0 km/h (5 Bft) 95,74 %
27.03.2021 10:24 8,1 C 9,4 C 8,4 C 75 % 1019,8 hPa 0,0 l/m 2 min 0 min 407 W/m 25,7 km/h (4 Bft) 95,74 %
27.03.2021 10:26 8,0 C 8,9 C 7,8 C 75 % 1019,8 hPa 0,0 l/m 0 min 0 min 243 W/m 22,5 km/h (4 Bft) 93,48 %
27.03.2021 10:28 8,0 C 8,9 C 7,8 C 75 % 1019,8 hPa 0,0 l/m 0 min 0 min 269 W/m 29,0 km/h (5 Bft) 95,74 %
27.03.2021 10:30 8,0 C 8,9 C 7,8 C 75 % 1019,8 hPa 0,0 l/m 0 min 0 min 218 W/m 22,5 km/h (4 Bft) 95,74 %
27.03.2021 10:32 8,0 C 8,3 C 7,3 C 75 % 1019,8 hPa 0,0 l/m 0 min 0 min 167 W/m 25,7 km/h (4 Bft) 97,87 %
27.03.2021 10:34 8,0 C 8,3 C 6,7 C 75 % 1019,8 hPa 0,0 l/m 0 min 0 min 137 W/m 25,7 km/h (4 Bft) 97,87 %
27.03.2021 10:36 8,0 C 8,9 C 7,3 C 75 % 1019,9 hPa 0,0 l/m 0 min 0 min 195 W/m 12,9 km/h (3 Bft) 97,87 %
27.03.2021 10:38 8,0 C 8,9 C 7,3 C 75 % 1019,8 hPa 0,0 l/m 0 min 0 min 204 W/m 16,1 km/h (3 Bft) 97,83 %
27.03.2021 10:40 8,1 C 9,4 C 9,5 C 74 % 1019,8 hPa 0,0 l/m 2 min 0 min 365 W/m 25,7 km/h (4 Bft) 97,87 %
27.03.2021 10:42 8,1 C 9,4 C 8,9 C 73 % 1019,8 hPa 0,0 l/m 2 min 0 min 335 W/m 35,4 km/h (5 Bft) 97,87 %
27.03.2021 10:44 8,1 C 9,4 C 8,4 C 73 % 1019,9 hPa 0,0 l/m 2 min 0 min 316 W/m 22,5 km/h (4 Bft) 97,87 %
27.03.2021 10:46 8,3 C 10,0 C 10,0 C 74 % 1019,9 hPa 0,0 l/m 2 min 0 min 628 W/m 16,1 km/h (3 Bft) 97,87 %
27.03.2021 10:48 8,4 C 10,6 C 10,0 C 75 % 1019,9 hPa 0,0 l/m 2 min 0 min 448 W/m 16,1 km/h (3 Bft) 95,74 %
27.03.2021 10:50 8,5 C 10,0 C 8,9 C 75 % 1019,9 hPa 0,0 l/m 2 min 0 min 299 W/m 16,1 km/h (3 Bft) 97,87 %
27.03.2021 10:52 8,6 C 9,4 C 8,4 C 73 % 1019,8 hPa 0,0 l/m 0 min 0 min 232 W/m 25,7 km/h (4 Bft) 97,83 %
27.03.2021 10:54 8,6 C 9,4 C 7,8 C 72 % 1019,9 hPa 0,0 l/m 0 min 0 min 247 W/m 29,0 km/h (5 Bft) 97,87 %
27.03.2021 10:56 8,6 C 9,4 C 8,4 C 73 % 1019,9 hPa 0,0 l/m 0 min 0 min 278 W/m 19,3 km/h (3 Bft) 97,87 %
27.03.2021 10:58 8,7 C 10,0 C 8,4 C 73 % 1020,0 hPa 0,0 l/m 0 min 0 min 278 W/m 22,5 km/h (4 Bft) 97,87 %
27.03.2021 11:00 8,8 C 10,6 C 10,0 C 72 % 1020,0 hPa 0,0 l/m 2 min 0 min 544 W/m 19,3 km/h (3 Bft) 95,74 %
27.03.2021 11:02 8,9 C 10,6 C 10,0 C 72 % 1020,0 hPa 0,0 l/m 2 min 0 min 478 W/m 19,3 km/h (3 Bft) 95,74 %
27.03.2021 11:04 9,0 C 10,6 C 10,0 C 72 % 1020,0 hPa 0,0 l/m 2 min 0 min 393 W/m 22,5 km/h (4 Bft) 97,87 %
27.03.2021 11:06 9,0 C 10,6 C 9,5 C 70 % 1020,0 hPa 0,0 l/m 2 min 0 min 366 W/m 35,4 km/h (5 Bft) 97,87 %
27.03.2021 11:08 9,1 C 10,6 C 9,5 C 70 % 1020,0 hPa 0,0 l/m 2 min 0 min 348 W/m 22,5 km/h (4 Bft) 97,87 %
27.03.2021 11:10 9,0 C 9,4 C 8,4 C 69 % 1019,9 hPa 0,0 l/m 0 min 0 min 251 W/m 22,5 km/h (4 Bft) 97,87 %
27.03.2021 11:12 9,0 C 9,4 C 7,8 C 68 % 1020,0 hPa 0,0 l/m 0 min 0 min 198 W/m 22,5 km/h (4 Bft) 97,87 %
27.03.2021 11:14 8,8 C 8,9 C 7,3 C 68 % 1020,1 hPa 0,0 l/m 0 min 0 min 230 W/m 29,0 km/h (5 Bft) 95,65 %
27.03.2021 11:16 8,8 C 9,4 C 7,3 C 69 % 1020,1 hPa 0,0 l/m 0 min 0 min 283 W/m 22,5 km/h (4 Bft) 95,74 %
27.03.2021 11:18 8,8 C 10,0 C 9,5 C 69 % 1020,4 hPa 0,0 l/m 0 min 0 min 299 W/m 29,0 km/h (5 Bft) 48,89 %
27.03.2021 11:20 8,8 C 9,4 C 8,4 C 68 % 1020,2 hPa 0,0 l/m 0 min 0 min 253 W/m 29,0 km/h (5 Bft) 95,74 %
27.03.2021 11:22 8,8 C 9,4 C 7,8 C 69 % 1020,2 hPa 0,0 l/m 0 min 0 min 194 W/m 16,1 km/h (3 Bft) 95,74 %
27.03.2021 11:24 8,8 C 8,9 C 7,3 C 69 % 1020,3 hPa 0,0 l/m 0 min 0 min 178 W/m 38,6 km/h (5 Bft) 95,74 %
27.03.2021 11:26 8,7 C 9,4 C 8,4 C 68 % 1020,4 hPa 0,0 l/m 0 min 0 min 184 W/m 29,0 km/h (5 Bft) 95,65 %
27.03.2021 11:28 8,8 C 10,0 C 8,9 C 69 % 1020,3 hPa 0,0 l/m 0 min 0 min 185 W/m 25,7 km/h (4 Bft) 95,74 %
27.03.2021 11:30 8,9 C 10,0 C 8,4 C 67 % 1020,4 hPa 0,0 l/m 0 min 0 min 206 W/m 19,3 km/h (3 Bft) 95,74 %
27.03.2021 11:32 8,9 C 9,4 C 7,8 C 67 % 1020,4 hPa 0,0 l/m 0 min 2 min 225 W/m 35,4 km/h (5 Bft) 95,74 %
27.03.2021 11:34 8,8 C 8,9 C 6,7 C 69 % 1020,4 hPa 0,0 l/m 0 min 2 min 154 W/m 35,4 km/h (5 Bft) 95,74 %
27.03.2021 11:36 8,6 C 8,3 C 5,6 C 70 % 1020,4 hPa 0,0 l/m 0 min 2 min 117 W/m 22,5 km/h (4 Bft) 97,87 %
27.03.2021 11:38 8,5 C 7,8 C 5,6 C 71 % 1020,5 hPa 0,0 l/m 0 min 2 min 84 W/m 25,7 km/h (4 Bft) 97,87 %
27.03.2021 11:40 8,4 C 7,8 C 5,6 C 72 % 1020,6 hPa 0,0 l/m 0 min 0 min 64 W/m 25,7 km/h (4 Bft) 95,74 %
27.03.2021 11:42 8,3 C 7,8 C 5,0 C 72 % 1020,6 hPa 0,0 l/m 0 min 0 min 57 W/m 16,1 km/h (3 Bft) 100,00 %
27.03.2021 11:44 8,1 C 7,2 C 5,0 C 73 % 1020,7 hPa 0,0 l/m 0 min 2 min 88 W/m 32,2 km/h (5 Bft) 97,87 %
27.03.2021 11:46 7,9 C 7,2 C 4,5 C 74 % 1020,8 hPa 0,0 l/m 0 min 2 min 100 W/m 35,4 km/h (5 Bft) 95,74 %
27.03.2021 11:48 7,7 C 7,8 C 5,6 C 75 % 1020,7 hPa 0,0 l/m 0 min 0 min 161 W/m 22,5 km/h (4 Bft) 97,87 %
27.03.2021 11:50 7,9 C 10,0 C 8,9 C 75 % 1020,7 hPa 0,0 l/m 2 min 0 min 506 W/m 32,2 km/h (5 Bft) 97,83 %
27.03.2021 11:52 8,1 C 11,1 C 10,6 C 75 % 1020,7 hPa 0,0 l/m 2 min 0 min 714 W/m 22,5 km/h (4 Bft) 97,87 %
27.03.2021 11:54 8,4 C 12,2 C 11,7 C 74 % 1020,8 hPa 0,0 l/m 2 min 0 min 714 W/m 19,3 km/h (3 Bft) 95,74 %
27.03.2021 11:56 8,8 C 12,8 C 11,7 C 73 % 1020,8 hPa 0,0 l/m 2 min 0 min 723 W/m 22,5 km/h (4 Bft) 97,87 %
27.03.2021 11:58 9,0 C 12,8 C 12,3 C 70 % 1020,8 hPa 0,0 l/m 2 min 0 min 734 W/m 25,7 km/h (4 Bft) 97,87 %
27.03.2021 12:00 9,2 C 12,8 C 12,3 C 68 % 1020,8 hPa 0,0 l/m 2 min 0 min 758 W/m 25,7 km/h (4 Bft) 97,87 %
27.03.2021 12:02 9,4 C 12,2 C 11,1 C 68 % 1021,0 hPa 0,0 l/m 2 min 0 min 763 W/m 22,5 km/h (4 Bft) 91,11 %
27.03.2021 12:04 9,4 C 11,7 C 10,0 C 68 % 1020,9 hPa 0,0 l/m 2 min 0 min 577 W/m 12,9 km/h (3 Bft) 95,74 %
27.03.2021 12:08 9,5 C 12,8 C 9,5 C 66 % 1021,0 hPa 0,0 l/m 4 min 0 min 575 W/m 22,5 km/h (4 Bft) 97,59 %
27.03.2021 12:10 9,7 C 12,8 C 9,5 C 65 % 1020,9 hPa 0,0 l/m 2 min 0 min 890 W/m 32,2 km/h (5 Bft) 97,87 %
27.03.2021 12:12 9,8 C 11,7 C 8,9 C 63 % 1020,9 hPa 0,0 l/m 2 min 0 min 377 W/m 29,0 km/h (5 Bft) 97,87 %
27.03.2021 12:14 9,7 C 11,7 C 8,9 C 62 % 1020,9 hPa 0,0 l/m 0 min 0 min 324 W/m 35,4 km/h (5 Bft) 97,87 %
27.03.2021 12:16 9,6 C 11,1 C 9,5 C 61 % 1021,0 hPa 0,0 l/m 2 min 0 min 411 W/m 32,2 km/h (5 Bft) 95,74 %
27.03.2021 12:18 9,8 C 12,2 C 10,0 C 62 % 1021,0 hPa 0,0 l/m 2 min 0 min 403 W/m 22,5 km/h (4 Bft) 97,83 %
27.03.2021 12:20 9,9 C 12,2 C 10,0 C 63 % 1021,0 hPa 0,0 l/m 2 min 0 min 721 W/m 25,7 km/h (4 Bft) 97,87 %
27.03.2021 12:22 10,0 C 11,7 C 10,0 C 62 % 1021,1 hPa 0,0 l/m 2 min 0 min 700 W/m 41,8 km/h (6 Bft) 97,87 %
27.03.2021 12:24 9,9 C 11,1 C 8,9 C 62 % 1021,1 hPa 0,0 l/m 2 min 0 min 466 W/m 22,5 km/h (4 Bft) 97,87 %
27.03.2021 12:26 9,7 C 10,0 C 8,4 C 62 % 1021,2 hPa 0,0 l/m 0 min 0 min 130 W/m 29,0 km/h (5 Bft) 95,74 %
27.03.2021 12:28 9,5 C 9,4 C 7,3 C 63 % 1021,3 hPa 0,0 l/m 0 min 0 min 81 W/m 22,5 km/h (4 Bft) 97,87 %
27.03.2021 12:30 9,3 C 8,9 C 5,6 C 65 % 1021,5 hPa 0,0 l/m 0 min 2 min 61 W/m 35,4 km/h (5 Bft) 97,83 %
27.03.2021 12:32 9,0 C 7,8 C 3,4 C 66 % 1021,4 hPa 0,2 l/m 0 min 2 min 102 W/m 25,7 km/h (4 Bft) 97,87 %
27.03.2021 12:34 8,6 C 8,9 C 4,5 C 70 % 1021,5 hPa 0,0 l/m 2 min 2 min 375 W/m 22,5 km/h (4 Bft) 95,74 %
27.03.2021 12:36 8,6 C 10,6 C 6,1 C 74 % 1021,6 hPa 0,2 l/m 2 min 2 min 769 W/m 29,0 km/h (5 Bft) 98,11 %
27.03.2021 12:38 8,8 C 11,7 C 6,1 C 74 % 1021,7 hPa 0,0 l/m 2 min 2 min 758 W/m 25,7 km/h (4 Bft) 97,56 %
27.03.2021 12:40 8,9 C 12,2 C 6,1 C 74 % 1021,6 hPa 0,0 l/m 2 min 0 min 742 W/m 19,3 km/h (3 Bft) 97,87 %
27.03.2021 12:42 9,1 C 12,8 C 6,1 C 73 % 1021,6 hPa 0,0 l/m 2 min 0 min 734 W/m 22,5 km/h (4 Bft) 97,83 %
27.03.2021 12:44 9,3 C 13,3 C 6,1 C 73 % 1021,6 hPa 0,0 l/m 2 min 0 min 731 W/m 32,2 km/h (5 Bft) 97,87 %
27.03.2021 12:46 9,4 C 13,9 C 6,1 C 71 % 1021,7 hPa 0,2 l/m 2 min 0 min 734 W/m 22,5 km/h (4 Bft) 97,87 %
27.03.2021 12:48 9,5 C 14,4 C 6,1 C 72 % 1021,7 hPa 0,0 l/m 2 min 0 min 738 W/m 16,1 km/h (3 Bft) 95,74 %
27.03.2021 12:50 9,6 C 14,4 C 6,1 C 71 % 1021,7 hPa 0,0 l/m 2 min 0 min 741 W/m 22,5 km/h (4 Bft) 95,74 %
27.03.2021 12:52 9,8 C 14,4 C 6,1 C 71 % 1021,8 hPa 0,0 l/m 2 min 0 min 740 W/m 16,1 km/h (3 Bft) 97,87 %
27.03.2021 12:54 9,8 C 13,3 C 5,6 C 68 % 1021,7 hPa 0,0 l/m 2 min 0 min 741 W/m 38,6 km/h (5 Bft) 97,83 %
27.03.2021 12:56 9,8 C 13,9 C 5,6 C 68 % 1021,7 hPa 0,0 l/m 2 min 0 min 748 W/m 29,0 km/h (5 Bft) 97,87 %
27.03.2021 12:58 9,9 C 13,9 C 6,1 C 68 % 1021,7 hPa 0,0 l/m 2 min 0 min 754 W/m 29,0 km/h (5 Bft) 95,74 %
27.03.2021 13:00 9,9 C 14,4 C 6,1 C 68 % 1021,6 hPa 0,0 l/m 2 min 0 min 766 W/m 29,0 km/h (5 Bft) 97,87 %
27.03.2021 13:02 10,0 C 15,0 C 6,1 C 68 % 1021,5 hPa 0,0 l/m 2 min 0 min 786 W/m 22,5 km/h (4 Bft) 98,11 %
27.03.2021 13:04 10,2 C 15,6 C 6,7 C 68 % 1021,6 hPa 0,0 l/m 2 min 0 min 819 W/m 29,0 km/h (5 Bft) 97,56 %
27.03.2021 13:06 10,3 C 15,0 C 6,1 C 66 % 1021,7 hPa 0,0 l/m 2 min 0 min 858 W/m 22,5 km/h (4 Bft) 97,83 %
27.03.2021 13:08 10,4 C 15,6 C 6,7 C 65 % 1021,8 hPa 0,0 l/m 2 min 0 min 909 W/m 29,0 km/h (5 Bft) 95,74 %
27.03.2021 13:10 10,6 C 15,6 C 7,3 C 66 % 1021,7 hPa 0,0 l/m 2 min 0 min 926 W/m 35,4 km/h (5 Bft) 97,87 %
27.03.2021 13:12 10,6 C 14,4 C 7,3 C 65 % 1021,8 hPa 0,0 l/m 2 min 0 min 857 W/m 22,5 km/h (4 Bft) 100,00 %
27.03.2021 13:14 10,7 C 14,4 C 7,3 C 64 % 1021,8 hPa 0,0 l/m 0 min 0 min 302 W/m 25,7 km/h (4 Bft) 100,00 %
27.03.2021 13:16 10,6 C 13,9 C 7,3 C 63 % 1021,8 hPa 0,0 l/m 0 min 0 min 302 W/m 22,5 km/h (4 Bft) 100,00 %
27.03.2021 13:18 10,5 C 12,8 C 7,3 C 62 % 1021,8 hPa 0,0 l/m 0 min 0 min 302 W/m 32,2 km/h (5 Bft) 100,00 %
27.03.2021 13:20 10,5 C 13,9 C 7,8 C 62 % 1021,9 hPa 0,0 l/m 2 min 0 min 503 W/m 51,5 km/h (7 Bft) 100,00 %
27.03.2021 13:22 10,7 C 15,6 C 8,4 C 63 % 1021,9 hPa 0,0 l/m 2 min 0 min 665 W/m 32,2 km/h (5 Bft) 93,62 %
27.03.2021 13:24 10,8 C 14,4 C 7,8 C 61 % 1021,9 hPa 0,0 l/m 2 min 0 min 663 W/m 38,6 km/h (5 Bft) 100,00 %
27.03.2021 13:26 10,9 C 15,0 C 7,8 C 60 % 1021,9 hPa 0,0 l/m 2 min 0 min 662 W/m 25,7 km/h (4 Bft) 100,00 %
27.03.2021 13:28 11,1 C 15,0 C 8,4 C 61 % 1021,9 hPa 0,0 l/m 2 min 0 min 661 W/m 29,0 km/h (5 Bft) 97,87 %
27.03.2021 13:30 11,1 C 15,0 C 8,4 C 59 % 1022,1 hPa 0,0 l/m 2 min 0 min 913 W/m 38,6 km/h (5 Bft) 100,00 %
27.03.2021 13:32 11,1 C 15,0 C 7,8 C 59 % 1022,0 hPa 0,0 l/m 2 min 0 min 659 W/m 32,2 km/h (5 Bft) 100,00 %
27.03.2021 13:34 11,1 C 14,4 C 7,8 C 58 % 1022,1 hPa 0,0 l/m 2 min 0 min 658 W/m 29,0 km/h (5 Bft) 100,00 %
27.03.2021 13:36 11,1 C 14,4 C 8,4 C 58 % 1022,1 hPa 0,0 l/m 2 min 0 min 778 W/m 29,0 km/h (5 Bft) 100,00 %
27.03.2021 13:38 11,0 C 14,4 C 8,4 C 58 % 1022,1 hPa 0,0 l/m 2 min 0 min 632 W/m 29,0 km/h (5 Bft) 100,00 %
27.03.2021 13:40 10,9 C 14,4 C 8,4 C 58 % 1022,1 hPa 0,0 l/m 2 min 0 min 855 W/m 38,6 km/h (5 Bft) 100,00 %
27.03.2021 13:42 11,1 C 15,0 C 8,4 C 57 % 1022,1 hPa 0,0 l/m 2 min 0 min 652 W/m 32,2 km/h (5 Bft) 100,00 %
27.03.2021 13:44 11,2 C 15,6 C 8,9 C 56 % 1022,2 hPa 0,0 l/m 2 min 0 min 893 W/m 25,7 km/h (4 Bft) 100,00 %
27.03.2021 13:46 11,3 C 15,0 C 8,9 C 56 % 1022,3 hPa 0,0 l/m 2 min 0 min 649 W/m 35,4 km/h (5 Bft) 95,74 %
27.03.2021 13:48 11,3 C 15,6 C 8,9 C 55 % 1022,3 hPa 0,0 l/m 2 min 0 min 647 W/m 25,7 km/h (4 Bft) 100,00 %
27.03.2021 13:50 11,4 C 15,6 C 8,9 C 56 % 1022,5 hPa 0,0 l/m 2 min 0 min 892 W/m 35,4 km/h (5 Bft) 100,00 %
27.03.2021 13:52 11,5 C 15,6 C 8,9 C 55 % 1022,5 hPa 0,0 l/m 2 min 0 min 890 W/m 25,7 km/h (4 Bft) 100,00 %
27.03.2021 13:54 11,6 C 15,6 C 8,9 C 55 % 1022,4 hPa 0,0 l/m 2 min 0 min 883 W/m 25,7 km/h (4 Bft) 97,83 %
27.03.2021 13:56 11,6 C 16,1 C 8,9 C 54 % 1022,4 hPa 0,0 l/m 2 min 0 min 848 W/m 22,5 km/h (4 Bft) 97,87 %
27.03.2021 13:58 11,8 C 16,1 C 8,9 C 55 % 1022,4 hPa 0,0 l/m 2 min 0 min 829 W/m 25,7 km/h (4 Bft) 100,00 %
27.03.2021 14:00 11,9 C 16,7 C 8,9 C 54 % 1022,6 hPa 0,0 l/m 2 min 0 min 844 W/m 29,0 km/h (5 Bft) 95,74 %
27.03.2021 14:02 11,9 C 16,1 C 8,9 C 55 % 1022,5 hPa 0,0 l/m 2 min 0 min 843 W/m 48,3 km/h (6 Bft) 97,87 %
27.03.2021 14:04 11,8 C 15,6 C 8,9 C 54 % 1022,6 hPa 0,0 l/m 2 min 0 min 838 W/m 25,7 km/h (4 Bft) 100,00 %
27.03.2021 14:06 11,7 C 14,4 C 8,9 C 55 % 1022,5 hPa 0,0 l/m 2 min 0 min 559 W/m 35,4 km/h (5 Bft) 97,83 %
27.03.2021 14:08 11,6 C 13,3 C 8,4 C 55 % 1022,6 hPa 0,0 l/m 0 min 0 min 237 W/m 19,3 km/h (3 Bft) 98,18 %
27.03.2021 14:10 11,4 C 12,8 C 8,4 C 56 % 1022,6 hPa 0,0 l/m 0 min 0 min 211 W/m 22,5 km/h (4 Bft) 97,87 %
27.03.2021 14:12 11,3 C 12,2 C 8,4 C 56 % 1022,6 hPa 0,0 l/m 0 min 0 min 211 W/m 45,1 km/h (6 Bft) 100,00 %
27.03.2021 14:14 11,0 C 11,1 C 7,8 C 54 % 1022,8 hPa 0,0 l/m 0 min 0 min 187 W/m 25,7 km/h (4 Bft) 100,00 %
27.03.2021 14:16 10,8 C 10,6 C 7,3 C 55 % 1022,8 hPa 0,0 l/m 0 min 0 min 130 W/m 25,7 km/h (4 Bft) 100,00 %
27.03.2021 14:18 10,5 C 10,0 C 7,3 C 56 % 1022,9 hPa 0,0 l/m 0 min 0 min 108 W/m 25,7 km/h (4 Bft) 97,87 %
27.03.2021 14:20 10,4 C 10,0 C 7,3 C 58 % 1023,0 hPa 0,0 l/m 0 min 2 min 92 W/m 22,5 km/h (4 Bft) 97,87 %
27.03.2021 14:22 10,1 C 9,4 C 6,7 C 62 % 1023,1 hPa 0,0 l/m 0 min 2 min 97 W/m 22,5 km/h (4 Bft) 100,00 %
27.03.2021 14:24 9,8 C 8,9 C 5,6 C 64 % 1023,2 hPa 0,0 l/m 0 min 2 min 180 W/m 19,3 km/h (3 Bft) 97,83 %
27.03.2021 14:26 9,4 C 8,9 C 5,0 C 67 % 1023,1 hPa 0,0 l/m 0 min 2 min 256 W/m 25,7 km/h (4 Bft) 97,87 %
27.03.2021 14:28 9,1 C 8,9 C 4,5 C 66 % 1023,1 hPa 0,0 l/m 0 min 2 min 173 W/m 25,7 km/h (4 Bft) 100,00 %
27.03.2021 14:30 9,0 C 10,0 C 5,0 C 69 % 1023,1 hPa 0,0 l/m 0 min 2 min 161 W/m 12,9 km/h (3 Bft) 100,00 %
27.03.2021 14:32 9,0 C 10,0 C 5,0 C 70 % 1023,1 hPa 0,0 l/m 0 min 0 min 152 W/m 16,1 km/h (3 Bft) 100,00 %
27.03.2021 14:34 9,0 C 11,1 C 5,0 C 69 % 1023,2 hPa 0,0 l/m 0 min 0 min 210 W/m 19,3 km/h (3 Bft) 100,00 %
27.03.2021 14:36 9,1 C 11,7 C 5,6 C 68 % 1023,1 hPa 0,0 l/m 2 min 0 min 613 W/m 45,1 km/h (6 Bft) 95,65 %
27.03.2021 14:38 9,1 C 10,6 C 5,6 C 66 % 1023,1 hPa 0,0 l/m 2 min 2 min 422 W/m 22,5 km/h (4 Bft) 100,00 %
27.03.2021 14:40 9,2 C 11,7 C 5,6 C 65 % 1023,0 hPa 0,0 l/m 0 min 2 min 128 W/m 22,5 km/h (4 Bft) 97,87 %
27.03.2021 14:42 9,3 C 12,2 C 6,1 C 64 % 1023,1 hPa 0,0 l/m 0 min 0 min 279 W/m 32,2 km/h (5 Bft) 97,87 %
27.03.2021 14:44 9,4 C 13,9 C 6,1 C 64 % 1023,2 hPa 0,0 l/m 2 min 0 min 692 W/m 22,5 km/h (4 Bft) 95,74 %
27.03.2021 14:46 9,6 C 13,3 C 6,7 C 64 % 1023,1 hPa 0,0 l/m 2 min 0 min 693 W/m 22,5 km/h (4 Bft) 95,74 %
27.03.2021 14:48 9,8 C 14,4 C 7,3 C 64 % 1023,0 hPa 0,0 l/m 2 min 0 min 699 W/m 19,3 km/h (3 Bft) 93,48 %
27.03.2021 14:50 10,0 C 14,4 C 7,3 C 62 % 1023,0 hPa 0,0 l/m 2 min 0 min 698 W/m 22,5 km/h (4 Bft) 95,74 %
27.03.2021 14:52 10,3 C 15,0 C 7,8 C 62 % 1023,2 hPa 0,0 l/m 2 min 0 min 654 W/m 32,2 km/h (5 Bft) 93,62 %
27.03.2021 14:54 10,4 C 15,6 C 7,8 C 59 % 1023,2 hPa 0,0 l/m 2 min 0 min 626 W/m 29,0 km/h (5 Bft) 93,62 %
27.03.2021 14:56 10,5 C 15,6 C 7,8 C 59 % 1023,2 hPa 0,0 l/m 2 min 0 min 612 W/m 19,3 km/h (3 Bft) 91,49 %
27.03.2021 14:58 10,6 C 15,6 C 7,8 C 59 % 1023,2 hPa 0,0 l/m 2 min 0 min 604 W/m 19,3 km/h (3 Bft) 95,74 %
27.03.2021 15:00 10,7 C 15,6 C 7,8 C 59 % 1023,2 hPa 0,0 l/m 2 min 0 min 600 W/m 25,7 km/h (4 Bft) 97,83 %
27.03.2021 15:02 10,7 C 16,1 C 7,8 C 58 % 1023,2 hPa 0,0 l/m 2 min 0 min 602 W/m 22,5 km/h (4 Bft) 91,67 %
27.03.2021 15:04 10,8 C 16,7 C 7,8 C 58 % 1023,2 hPa 0,0 l/m 2 min 0 min 595 W/m 16,1 km/h (3 Bft) 95,74 %
27.03.2021 15:06 10,9 C 16,1 C 7,8 C 57 % 1023,2 hPa 0,0 l/m 2 min 0 min 592 W/m 25,7 km/h (4 Bft) 91,49 %
27.03.2021 15:08 10,9 C 15,6 C 7,8 C 56 % 1023,2 hPa 0,0 l/m 2 min 0 min 608 W/m 38,6 km/h (5 Bft) 89,36 %
27.03.2021 15:10 10,9 C 15,6 C 7,8 C 56 % 1023,2 hPa 0,0 l/m 2 min 0 min 602 W/m 22,5 km/h (4 Bft) 95,56 %
27.03.2021 15:12 11,0 C 15,6 C 7,8 C 56 % 1023,3 hPa 0,0 l/m 2 min 0 min 598 W/m 25,7 km/h (4 Bft) 91,49 %
27.03.2021 15:14 11,0 C 15,6 C 7,8 C 55 % 1023,3 hPa 0,0 l/m 2 min 0 min 574 W/m 38,6 km/h (5 Bft) 87,23 %
27.03.2021 15:16 11,0 C 16,1 C 7,8 C 56 % 1023,3 hPa 0,0 l/m 2 min 0 min 605 W/m 29,0 km/h (5 Bft) 93,62 %
27.03.2021 15:18 11,1 C 16,1 C 8,4 C 55 % 1023,3 hPa 0,0 l/m 2 min 0 min 608 W/m 29,0 km/h (5 Bft) 93,62 %
27.03.2021 15:20 11,0 C 12,8 C 7,8 C 54 % 1023,5 hPa 0,0 l/m 2 min 0 min 578 W/m 29,0 km/h (5 Bft) 93,62 %
27.03.2021 15:22 10,8 C 11,7 C 7,8 C 54 % 1023,4 hPa 0,0 l/m 0 min 0 min 133 W/m 19,3 km/h (3 Bft) 91,30 %
27.03.2021 15:24 10,6 C 10,6 C 7,3 C 55 % 1023,5 hPa 0,0 l/m 0 min 0 min 155 W/m 25,7 km/h (4 Bft) 93,62 %
27.03.2021 15:26 10,5 C 12,8 C 7,3 C 55 % 1023,5 hPa 0,0 l/m 0 min 0 min 204 W/m 22,5 km/h (4 Bft) 91,49 %
27.03.2021 15:28 10,5 C 12,2 C 7,8 C 56 % 1023,5 hPa 0,0 l/m 2 min 0 min 605 W/m 25,7 km/h (4 Bft) 95,74 %
27.03.2021 15:30 10,5 C 11,1 C 7,8 C 56 % 1023,5 hPa 0,0 l/m 0 min 0 min 190 W/m 29,0 km/h (5 Bft) 91,49 %
27.03.2021 15:32 10,4 C 10,6 C 7,3 C 56 % 1023,5 hPa 0,0 l/m 0 min 0 min 134 W/m 35,4 km/h (5 Bft) 89,80 %
27.03.2021 15:34 10,3 C 10,0 C 7,3 C 56 % 1023,6 hPa 0,0 l/m 0 min 0 min 126 W/m 19,3 km/h (3 Bft) 93,48 %
27.03.2021 15:36 10,2 C 10,0 C 7,3 C 57 % 1023,6 hPa 0,0 l/m 0 min 0 min 104 W/m 16,1 km/h (3 Bft) 93,62 %
27.03.2021 15:38 10,1 C 10,0 C 6,7 C 57 % 1023,8 hPa 0,0 l/m 0 min 0 min 104 W/m 38,6 km/h (5 Bft) 93,62 %
27.03.2021 15:40 10,0 C 11,7 C 7,3 C 56 % 1023,7 hPa 0,0 l/m 0 min 0 min 105 W/m 22,5 km/h (4 Bft) 93,62 %
27.03.2021 15:42 10,1 C 13,9 C 7,3 C 57 % 1023,7 hPa 0,0 l/m 2 min 0 min 308 W/m 22,5 km/h (4 Bft) 95,74 %
27.03.2021 15:44 10,3 C 15,0 C 8,4 C 57 % 1023,6 hPa 0,0 l/m 2 min 0 min 635 W/m 22,5 km/h (4 Bft) 95,74 %
27.03.2021 15:46 10,5 C 15,6 C 8,4 C 56 % 1023,7 hPa 0,0 l/m 2 min 0 min 583 W/m 12,9 km/h (3 Bft) 95,65 %
27.03.2021 15:48 10,8 C 14,4 C 8,4 C 55 % 1023,6 hPa 0,0 l/m 2 min 0 min 461 W/m 35,4 km/h (5 Bft) 93,62 %
27.03.2021 15:50 10,8 C 13,9 C 8,4 C 55 % 1023,7 hPa 0,0 l/m 2 min 0 min 502 W/m 19,3 km/h (3 Bft) 95,74 %
27.03.2021 15:52 10,8 C 12,2 C 8,4 C 55 % 1023,7 hPa 0,0 l/m 2 min 0 min 421 W/m 25,7 km/h (4 Bft) 93,62 %
27.03.2021 15:54 10,8 C 11,7 C 7,8 C 54 % 1023,8 hPa 0,0 l/m 0 min 0 min 116 W/m 29,0 km/h (5 Bft) 95,74 %
27.03.2021 15:56 10,5 C 12,8 C 7,8 C 54 % 1023,8 hPa 0,0 l/m 0 min 0 min 185 W/m 22,5 km/h (4 Bft) 93,62 %
27.03.2021 15:58 10,6 C 14,4 C 7,8 C 56 % 1023,8 hPa 0,0 l/m 2 min 0 min 502 W/m 16,1 km/h (3 Bft) 93,48 %
27.03.2021 16:00 10,7 C 13,9 C 7,8 C 55 % 1023,9 hPa 0,0 l/m 2 min 0 min 485 W/m 19,3 km/h (3 Bft) 95,83 %
27.03.2021 16:02 10,6 C 11,1 C 7,3 C 54 % 1023,9 hPa 0,0 l/m 0 min 0 min 67 W/m 25,7 km/h (4 Bft) 97,87 %
27.03.2021 16:04 10,4 C 10,6 C 7,3 C 54 % 1023,8 hPa 0,0 l/m 0 min 0 min 69 W/m 25,7 km/h (4 Bft) 95,74 %
27.03.2021 16:06 10,2 C 10,0 C 7,3 C 54 % 1023,8 hPa 0,0 l/m 0 min 0 min 80 W/m 19,3 km/h (3 Bft) 95,74 %
27.03.2021 16:08 10,1 C 9,4 C 6,7 C 55 % 1023,9 hPa 0,0 l/m 0 min 0 min 86 W/m 19,3 km/h (3 Bft) 95,74 %
27.03.2021 16:10 10,0 C 9,4 C 6,7 C 55 % 1024,0 hPa 0,0 l/m 0 min 0 min 84 W/m 19,3 km/h (3 Bft) 100,00 %
27.03.2021 16:12 9,9 C 9,4 C 6,7 C 57 % 1024,0 hPa 0,0 l/m 0 min 0 min 102 W/m 16,1 km/h (3 Bft) 97,73 %
27.03.2021 16:14 9,8 C 9,4 C 6,7 C 56 % 1024,0 hPa 0,0 l/m 0 min 0 min 98 W/m 16,1 km/h (3 Bft) 100,00 %
27.03.2021 16:16 9,8 C 9,4 C 6,7 C 57 % 1024,0 hPa 0,0 l/m 0 min 0 min 87 W/m 22,5 km/h (4 Bft) 100,00 %
27.03.2021 16:18 9,7 C 9,4 C 6,7 C 58 % 1024,1 hPa 0,0 l/m 0 min 0 min 89 W/m 16,1 km/h (3 Bft) 100,00 %
27.03.2021 16:20 9,6 C 9,4 C 6,7 C 58 % 1024,0 hPa 0,0 l/m 0 min 0 min 92 W/m 16,1 km/h (3 Bft) 97,87 %
27.03.2021 16:22 9,6 C 9,4 C 6,7 C 58 % 1024,0 hPa 0,0 l/m 0 min 0 min 111 W/m 12,9 km/h (3 Bft) 91,30 %
27.03.2021 16:24 9,5 C 8,9 C 6,7 C 58 % 1024,0 hPa 0,0 l/m 0 min 0 min 115 W/m 25,7 km/h (4 Bft) 95,74 %
27.03.2021 16:26 9,5 C 8,9 C 6,7 C 59 % 1024,0 hPa 0,0 l/m 0 min 0 min 102 W/m 16,1 km/h (3 Bft) 89,36 %
27.03.2021 16:28 9,5 C 9,4 C 6,7 C 59 % 1024,0 hPa 0,0 l/m 0 min 0 min 103 W/m 16,1 km/h (3 Bft) 89,36 %
27.03.2021 16:30 9,4 C 9,4 C 6,1 C 58 % 1024,0 hPa 0,0 l/m 0 min 0 min 119 W/m 22,5 km/h (4 Bft) 82,98 %
27.03.2021 16:32 9,4 C 9,4 C 6,7 C 59 % 1024,1 hPa 0,0 l/m 0 min 0 min 134 W/m 16,1 km/h (3 Bft) 91,67 %
27.03.2021 16:34 9,4 C 9,4 C 6,7 C 59 % 1024,1 hPa 0,0 l/m 0 min 0 min 154 W/m 22,5 km/h (4 Bft) 95,65 %
27.03.2021 16:36 9,4 C 10,0 C 6,7 C 59 % 1024,1 hPa 0,0 l/m 0 min 0 min 136 W/m 16,1 km/h (3 Bft) 78,72 %
27.03.2021 16:38 9,5 C 11,7 C 6,7 C 59 % 1024,1 hPa 0,0 l/m 2 min 0 min 307 W/m 16,1 km/h (3 Bft) 100,00 %
27.03.2021 16:40 9,5 C 10,6 C 6,7 C 60 % 1024,2 hPa 0,0 l/m 2 min 0 min 292 W/m 19,3 km/h (3 Bft) 100,00 %
27.03.2021 16:42 9,5 C 10,0 C 6,7 C 59 % 1024,2 hPa 0,0 l/m 0 min 0 min 73 W/m 16,1 km/h (3 Bft) 97,87 %
27.03.2021 16:44 9,5 C 11,7 C 6,7 C 59 % 1024,3 hPa 0,0 l/m 0 min 0 min 112 W/m 9,7 km/h (2 Bft) 100,00 %
27.03.2021 16:46 9,6 C 10,6 C 6,7 C 60 % 1024,2 hPa 0,0 l/m 2 min 0 min 190 W/m 12,9 km/h (3 Bft) 100,00 %
27.03.2021 16:48 9,6 C 10,0 C 6,1 C 60 % 1024,2 hPa 0,0 l/m 0 min 0 min 79 W/m 12,9 km/h (3 Bft) 97,87 %
27.03.2021 16:50 9,6 C 11,7 C 6,7 C 59 % 1024,2 hPa 0,0 l/m 2 min 0 min 244 W/m 16,1 km/h (3 Bft) 97,87 %
27.03.2021 16:52 9,6 C 13,3 C 6,7 C 59 % 1024,3 hPa 0,0 l/m 2 min 0 min 333 W/m 16,1 km/h (3 Bft) 97,87 %
27.03.2021 16:54 9,7 C 13,3 C 6,7 C 59 % 1024,2 hPa 0,0 l/m 2 min 0 min 322 W/m 25,7 km/h (4 Bft) 95,74 %
27.03.2021 16:56 9,8 C 13,3 C 6,7 C 58 % 1024,2 hPa 0,0 l/m 2 min 0 min 311 W/m 16,1 km/h (3 Bft) 95,74 %
27.03.2021 16:58 9,9 C 12,8 C 6,7 C 57 % 1024,2 hPa 0,0 l/m 2 min 0 min 310 W/m 25,7 km/h (4 Bft) 100,00 %
27.03.2021 17:00 10,0 C 12,2 C 6,7 C 56 % 1024,3 hPa 0,0 l/m 2 min 0 min 274 W/m 25,7 km/h (4 Bft) 100,00 %
27.03.2021 17:02 10,0 C 12,8 C 7,3 C 56 % 1024,3 hPa 0,0 l/m 2 min 0 min 308 W/m 16,1 km/h (3 Bft) 100,00 %
27.03.2021 17:04 10,1 C 13,3 C 7,3 C 57 % 1024,3 hPa 0,0 l/m 2 min 0 min 282 W/m 19,3 km/h (3 Bft) 100,00 %
27.03.2021 17:06 10,1 C 12,8 C 7,3 C 57 % 1024,3 hPa 0,0 l/m 2 min 0 min 261 W/m 19,3 km/h (3 Bft) 97,87 %
27.03.2021 17:08 10,2 C 12,2 C 7,3 C 56 % 1024,4 hPa 0,0 l/m 2 min 0 min 256 W/m 16,1 km/h (3 Bft) 100,00 %
27.03.2021 17:10 10,1 C 10,6 C 6,7 C 56 % 1024,4 hPa 0,0 l/m 0 min 0 min 83 W/m 22,5 km/h (4 Bft) 100,00 %
27.03.2021 17:12 10,0 C 10,0 C 6,7 C 56 % 1024,4 hPa 0,0 l/m 0 min 0 min 47 W/m 16,1 km/h (3 Bft) 100,00 %
27.03.2021 17:14 9,9 C 9,4 C 6,7 C 56 % 1024,4 hPa 0,0 l/m 0 min 0 min 59 W/m 16,1 km/h (3 Bft) 100,00 %
27.03.2021 17:16 9,8 C 9,4 C 6,1 C 56 % 1024,4 hPa 0,0 l/m 0 min 0 min 74 W/m 9,7 km/h (2 Bft) 100,00 %
27.03.2021 17:18 9,7 C 9,4 C 6,1 C 57 % 1024,5 hPa 0,0 l/m 0 min 0 min 57 W/m 12,9 km/h (3 Bft) 100,00 %
27.03.2021 17:20 9,6 C 10,6 C 6,1 C 58 % 1024,5 hPa 0,0 l/m 0 min 0 min 106 W/m 12,9 km/h (3 Bft) 97,87 %
27.03.2021 17:22 9,6 C 12,2 C 6,7 C 58 % 1024,6 hPa 0,0 l/m 2 min 0 min 222 W/m 12,9 km/h (3 Bft) 100,00 %
27.03.2021 17:24 9,6 C 12,8 C 6,7 C 57 % 1024,6 hPa 0,0 l/m 2 min 0 min 227 W/m 12,9 km/h (3 Bft) 100,00 %
27.03.2021 17:26 9,7 C 12,8 C 6,7 C 56 % 1024,6 hPa 0,0 l/m 2 min 0 min 225 W/m 16,1 km/h (3 Bft) 97,83 %
27.03.2021 17:28 9,8 C 12,2 C 7,3 C 57 % 1024,6 hPa 0,0 l/m 2 min 0 min 195 W/m 19,3 km/h (3 Bft) 97,87 %
27.03.2021 17:30 9,8 C 12,8 C 7,3 C 56 % 1024,6 hPa 0,0 l/m 2 min 0 min 172 W/m 16,1 km/h (3 Bft) 97,87 %
27.03.2021 17:32 9,9 C 12,8 C 7,3 C 56 % 1024,7 hPa 0,0 l/m 2 min 0 min 175 W/m 19,3 km/h (3 Bft) 98,18 %
27.03.2021 17:34 9,9 C 12,8 C 7,3 C 56 % 1024,6 hPa 0,0 l/m 2 min 0 min 170 W/m 12,9 km/h (3 Bft) 97,83 %
27.03.2021 17:36 9,9 C 12,8 C 7,3 C 56 % 1024,7 hPa 0,0 l/m 2 min 0 min 157 W/m 16,1 km/h (3 Bft) 97,87 %
27.03.2021 17:38 10,0 C 12,8 C 7,3 C 56 % 1024,7 hPa 0,0 l/m 2 min 0 min 144 W/m 19,3 km/h (3 Bft) 97,87 %
27.03.2021 17:40 10,0 C 12,2 C 7,3 C 56 % 1024,8 hPa 0,0 l/m 2 min 0 min 149 W/m 12,9 km/h (3 Bft) 97,87 %
27.03.2021 17:42 10,0 C 12,2 C 7,3 C 55 % 1024,8 hPa 0,0 l/m 2 min 0 min 146 W/m 19,3 km/h (3 Bft) 97,87 %
27.03.2021 17:44 10,0 C 12,2 C 7,3 C 54 % 1024,9 hPa 0,0 l/m 2 min 0 min 151 W/m 19,3 km/h (3 Bft) 97,83 %
27.03.2021 17:46 10,0 C 12,2 C 7,3 C 54 % 1024,8 hPa 0,0 l/m 2 min 0 min 140 W/m 16,1 km/h (3 Bft) 97,87 %
27.03.2021 17:48 10,0 C 12,2 C 7,3 C 54 % 1024,9 hPa 0,0 l/m 2 min 0 min 122 W/m 12,9 km/h (3 Bft) 95,74 %
27.03.2021 17:50 10,0 C 11,7 C 7,3 C 55 % 1024,9 hPa 0,0 l/m 2 min 0 min 112 W/m 12,9 km/h (3 Bft) 95,74 %
27.03.2021 17:52 10,0 C 11,7 C 7,3 C 56 % 1025,0 hPa 0,0 l/m 2 min 0 min 106 W/m 12,9 km/h (3 Bft) 95,74 %
27.03.2021 17:54 10,0 C 11,7 C 6,7 C 57 % 1025,0 hPa 0,0 l/m 2 min 0 min 104 W/m 19,3 km/h (3 Bft) 97,87 %
27.03.2021 17:56 10,0 C 11,1 C 6,7 C 57 % 1025,0 hPa 0,0 l/m 2 min 0 min 103 W/m 19,3 km/h (3 Bft) 97,83 %
27.03.2021 17:58 9,9 C 10,6 C 6,7 C 57 % 1025,1 hPa 0,0 l/m 2 min 0 min 95 W/m 16,1 km/h (3 Bft) 97,87 %
27.03.2021 18:00 9,9 C 10,0 C 6,1 C 58 % 1025,1 hPa 0,0 l/m 2 min 0 min 82 W/m 9,7 km/h (2 Bft) 95,74 %
27.03.2021 18:02 9,8 C 10,0 C 6,1 C 58 % 1025,1 hPa 0,0 l/m 2 min 0 min 75 W/m 9,7 km/h (2 Bft) 95,24 %
27.03.2021 18:04 9,7 C 9,4 C 6,1 C 58 % 1025,2 hPa 0,0 l/m 0 min 0 min 65 W/m 12,9 km/h (3 Bft) 93,75 %
27.03.2021 18:08 9,5 C 8,9 C 6,1 C 58 % 1025,2 hPa 0,0 l/m 0 min 0 min 41 W/m 22,5 km/h (4 Bft) 93,26 %
27.03.2021 18:10 9,4 C 8,9 C 6,1 C 59 % 1025,2 hPa 0,0 l/m 0 min 0 min 32 W/m 19,3 km/h (3 Bft) 93,62 %
27.03.2021 18:12 9,4 C 8,3 C 6,1 C 59 % 1025,2 hPa 0,0 l/m 0 min 0 min 32 W/m 16,1 km/h (3 Bft) 95,65 %
27.03.2021 18:14 9,3 C 8,3 C 5,6 C 59 % 1025,3 hPa 0,0 l/m 0 min 0 min 30 W/m 12,9 km/h (3 Bft) 97,87 %
27.03.2021 18:16 9,2 C 8,3 C 5,6 C 60 % 1025,3 hPa 0,0 l/m 0 min 0 min 30 W/m 12,9 km/h (3 Bft) 98,08 %
27.03.2021 18:18 9,1 C 8,3 C 5,6 C 60 % 1025,3 hPa 0,0 l/m 0 min 0 min 29 W/m 16,1 km/h (3 Bft) 93,62 %
27.03.2021 18:20 9,0 C 8,3 C 5,6 C 59 % 1025,4 hPa 0,0 l/m 0 min 0 min 27 W/m 16,1 km/h (3 Bft) 95,74 %
27.03.2021 18:22 9,0 C 8,3 C 5,6 C 60 % 1025,4 hPa 0,0 l/m 0 min 0 min 26 W/m 9,7 km/h (2 Bft) 93,48 %
27.03.2021 18:24 9,0 C 8,3 C 5,6 C 60 % 1025,4 hPa 0,0 l/m 0 min 0 min 25 W/m 6,4 km/h (2 Bft) 95,74 %
27.03.2021 18:26 8,9 C 8,3 C 5,6 C 60 % 1025,5 hPa 0,0 l/m 0 min 0 min 24 W/m 9,7 km/h (2 Bft) 93,62 %
27.03.2021 18:28 8,9 C 7,8 C 5,6 C 60 % 1025,5 hPa 0,0 l/m 0 min 0 min 23 W/m 12,9 km/h (3 Bft) 95,74 %
27.03.2021 18:30 8,8 C 7,8 C 5,0 C 60 % 1025,5 hPa 0,0 l/m 0 min 0 min 21 W/m 16,1 km/h (3 Bft) 97,14 %
27.03.2021 18:32 8,8 C 7,8 C 5,0 C 60 % 1025,6 hPa 0,0 l/m 0 min 0 min 20 W/m 12,9 km/h (3 Bft) 92,73 %
27.03.2021 18:34 8,7 C 7,8 C 5,0 C 60 % 1025,5 hPa 0,0 l/m 0 min 0 min 19 W/m 12,9 km/h (3 Bft) 95,74 %
27.03.2021 18:36 8,6 C 7,8 C 5,0 C 60 % 1025,5 hPa 0,0 l/m 0 min 0 min 17 W/m 9,7 km/h (2 Bft) 89,13 %
27.03.2021 18:38 8,6 C 7,8 C 5,0 C 61 % 1025,6 hPa 0,0 l/m 0 min 0 min 16 W/m 12,9 km/h (3 Bft) 93,62 %
27.03.2021 18:40 8,5 C 7,8 C 5,0 C 61 % 1025,6 hPa 0,0 l/m 0 min 0 min 15 W/m 12,9 km/h (3 Bft) 95,74 %
27.03.2021 18:42 8,5 C 7,8 C 5,0 C 61 % 1025,6 hPa 0,0 l/m 0 min 0 min 14 W/m 9,7 km/h (2 Bft) 95,74 %
27.03.2021 18:44 8,4 C 7,2 C 5,0 C 61 % 1025,7 hPa 0,0 l/m 0 min 0 min 12 W/m 12,9 km/h (3 Bft) 91,49 %
27.03.2021 18:46 8,4 C 7,2 C 5,0 C 61 % 1025,7 hPa 0,0 l/m 0 min 0 min 12 W/m 9,7 km/h (2 Bft) 91,30 %
27.03.2021 18:48 8,3 C 7,2 C 4,5 C 62 % 1025,7 hPa 0,0 l/m 0 min 0 min 10 W/m 3,2 km/h (1 Bft) 82,98 %
27.03.2021 18:50 8,3 C 7,2 C 4,5 C 62 % 1025,7 hPa 0,0 l/m 0 min 0 min 9 W/m 3,2 km/h (1 Bft) 56,25 %
27.03.2021 18:52 8,2 C 7,2 C 4,5 C 62 % 1025,7 hPa 0,0 l/m 0 min 0 min 7 W/m 6,4 km/h (2 Bft) 80,85 %
27.03.2021 18:54 8,1 C 7,2 C 4,5 C 62 % 1025,8 hPa 0,0 l/m 0 min 0 min 6 W/m 6,4 km/h (2 Bft) 87,23 %
27.03.2021 18:56 8,1 C 7,2 C 4,5 C 62 % 1025,8 hPa 0,0 l/m 0 min 0 min 5 W/m 9,7 km/h (2 Bft) 91,49 %
27.03.2021 18:58 8,0 C 6,7 C 4,5 C 63 % 1025,8 hPa 0,0 l/m 0 min 0 min 4 W/m 3,2 km/h (1 Bft) 91,30 %
27.03.2021 19:00 8,0 C 6,7 C 4,5 C 63 % 1025,9 hPa 0,0 l/m 0 min 0 min 0 W/m 9,7 km/h (2 Bft) 97,87 %
27.03.2021 19:02 7,9 C 6,7 C 4,5 C 63 % 1025,9 hPa 0,0 l/m 0 min 0 min 0 W/m 6,4 km/h (2 Bft) 100,00 %
27.03.2021 19:04 7,9 C 6,7 C 4,5 C 63 % 1026,0 hPa 0,0 l/m 0 min 0 min 0 W/m 3,2 km/h (1 Bft) 100,00 %
27.03.2021 19:06 7,8 C 6,7 C 4,5 C 64 % 1026,0 hPa 0,0 l/m 0 min 0 min 0 W/m 6,4 km/h (2 Bft) 100,00 %
27.03.2021 19:08 7,8 C 6,7 C 3,9 C 63 % 1026,0 hPa 0,0 l/m 0 min 0 min 0 W/m 3,2 km/h (1 Bft) 100,00 %
27.03.2021 19:10 7,8 C 6,7 C 3,9 C 64 % 1026,0 hPa 0,0 l/m 0 min 0 min 0 W/m 3,2 km/h (1 Bft) 100,00 %
27.03.2021 19:12 7,7 C 6,7 C 3,9 C 64 % 1026,0 hPa 0,0 l/m 0 min 0 min 0 W/m 3,2 km/h (1 Bft) 100,00 %
27.03.2021 19:14 7,6 C 6,7 C 3,9 C 64 % 1026,1 hPa 0,0 l/m 0 min 0 min 0 W/m 3,2 km/h (1 Bft) 100,00 %
27.03.2021 19:16 7,6 C 6,1 C 3,9 C 65 % 1026,1 hPa 0,0 l/m 0 min 0 min 0 W/m 3,2 km/h (1 Bft) 100,00 %
27.03.2021 19:18 7,5 C 6,1 C 3,9 C 65 % 1026,1 hPa 0,0 l/m 0 min 0 min 0 W/m 3,2 km/h (1 Bft) 100,00 %
27.03.2021 19:20 7,5 C 6,1 C 3,9 C 65 % 1026,2 hPa 0,0 l/m 0 min 0 min 0 W/m 6,4 km/h (2 Bft) 97,87 %
27.03.2021 19:22 7,4 C 6,1 C 3,9 C 65 % 1026,2 hPa 0,0 l/m 0 min 0 min 0 W/m 6,4 km/h (2 Bft) 97,83 %
27.03.2021 19:24 7,4 C 6,1 C 3,9 C 65 % 1026,2 hPa 0,0 l/m 0 min 0 min 0 W/m 6,4 km/h (2 Bft) 100,00 %
27.03.2021 19:26 7,3 C 6,1 C 3,9 C 65 % 1026,2 hPa 0,0 l/m 0 min 0 min 0 W/m 6,4 km/h (2 Bft) 100,00 %
27.03.2021 19:28 7,3 C 6,1 C 3,9 C 65 % 1026,3 hPa 0,0 l/m 0 min 0 min 0 W/m 6,4 km/h (2 Bft) 100,00 %
27.03.2021 19:30 7,2 C 6,1 C 3,9 C 65 % 1026,3 hPa 0,0 l/m 0 min 0 min 0 W/m 6,4 km/h (2 Bft) 100,00 %
27.03.2021 19:32 7,2 C 6,1 C 3,4 C 65 % 1026,3 hPa 0,0 l/m 0 min 0 min 0 W/m 6,4 km/h (2 Bft) 100,00 %
27.03.2021 19:34 7,1 C 6,1 C 3,4 C 65 % 1026,4 hPa 0,0 l/m 0 min 0 min 0 W/m 6,4 km/h (2 Bft) 100,00 %
27.03.2021 19:36 7,1 C 6,1 C 3,4 C 65 % 1026,4 hPa 0,0 l/m 0 min 0 min 0 W/m 3,2 km/h (1 Bft) 100,00 %
27.03.2021 19:38 7,0 C 6,1 C 3,4 C 64 % 1026,4 hPa 0,0 l/m 0 min 0 min 0 W/m 3,2 km/h (1 Bft) 100,00 %
27.03.2021 19:40 7,0 C 6,1 C 3,4 C 64 % 1026,4 hPa 0,0 l/m 0 min 0 min 0 W/m 3,2 km/h (1 Bft) 100,00 %
27.03.2021 19:42 7,0 C 6,1 C 3,4 C 64 % 1026,4 hPa 0,0 l/m 0 min 0 min 0 W/m 6,4 km/h (2 Bft) 100,00 %
27.03.2021 19:44 7,0 C 6,1 C 3,4 C 64 % 1026,5 hPa 0,0 l/m 0 min 0 min 0 W/m 6,4 km/h (2 Bft) 97,87 %
27.03.2021 19:46 6,9 C 6,1 C 3,4 C 64 % 1026,5 hPa 0,0 l/m 0 min 0 min 0 W/m 6,4 km/h (2 Bft) 100,00 %
27.03.2021 19:48 6,9 C 6,1 C 3,4 C 64 % 1026,5 hPa 0,0 l/m 0 min 0 min 0 W/m 3,2 km/h (1 Bft) 100,00 %
27.03.2021 19:50 6,9 C 5,6 C 3,4 C 64 % 1026,5 hPa 0,0 l/m 0 min 0 min 0 W/m 6,4 km/h (2 Bft) 97,87 %
27.03.2021 19:52 6,8 C 5,6 C 3,4 C 64 % 1026,5 hPa 0,0 l/m 0 min 0 min 0 W/m 6,4 km/h (2 Bft) 97,87 %
27.03.2021 19:54 6,8 C 5,6 C 3,4 C 65 % 1026,5 hPa 0,0 l/m 0 min 0 min 0 W/m 3,2 km/h (1 Bft) 100,00 %
27.03.2021 19:56 6,8 C 5,6 C 3,4 C 65 % 1026,5 hPa 0,0 l/m 0 min 0 min 0 W/m 3,2 km/h (1 Bft) 97,83 %
27.03.2021 19:58 6,7 C 5,6 C 2,8 C 65 % 1026,5 hPa 0,0 l/m 0 min 0 min 0 W/m 3,2 km/h (1 Bft) 100,00 %
27.03.2021 20:00 6,6 C 5,0 C 2,8 C 65 % 1026,5 hPa 0,0 l/m 0 min 0 min 0 W/m 3,2 km/h (1 Bft) 100,00 %
27.03.2021 20:02 6,6 C 5,0 C 2,8 C 65 % 1026,5 hPa 0,0 l/m 0 min 0 min 0 W/m 0,0 km/h (0 Bft) 97,87 %
27.03.2021 20:04 6,6 C 5,0 C 2,8 C 66 % 1026,5 hPa 0,0 l/m 0 min 0 min 0 W/m 3,2 km/h (1 Bft) 82,98 %
27.03.2021 20:06 6,5 C 5,0 C 2,3 C 66 % 1026,6 hPa 0,0 l/m 0 min 0 min 0 W/m 3,2 km/h (1 Bft) 70,21 %
27.03.2021 20:08 6,5 C 5,0 C 2,3 C 65 % 1026,6 hPa 0,0 l/m 0 min 0 min 0 W/m 0,0 km/h (0 Bft) 100,00 %
27.03.2021 20:10 6,5 C 4,4 C 2,3 C 66 % 1026,6 hPa 0,0 l/m 0 min 0 min 0 W/m 0,0 km/h (0 Bft) 100,00 %
27.03.2021 20:12 6,4 C 4,4 C 2,3 C 66 % 1026,6 hPa 0,0 l/m 0 min 0 min 0 W/m 0,0 km/h (0 Bft) 97,87 %
27.03.2021 20:14 6,4 C 4,4 C 2,3 C 66 % 1026,6 hPa 0,0 l/m 0 min 0 min 0 W/m 0,0 km/h (0 Bft) 100,00 %
27.03.2021 20:16 6,4 C 4,4 C 2,3 C 66 % 1026,7 hPa 0,0 l/m 0 min 0 min 0 W/m 0,0 km/h (0 Bft) 93,62 %
27.03.2021 20:18 6,3 C 4,4 C 1,7 C 67 % 1026,7 hPa 0,0 l/m 0 min 0 min 0 W/m 0,0 km/h (0 Bft) 97,87 %
27.03.2021 20:20 6,2 C 4,4 C 1,7 C 67 % 1026,7 hPa 0,0 l/m 0 min 0 min 0 W/m 0,0 km/h (0 Bft) 100,00 %
27.03.2021 20:22 6,1 C 4,4 C 1,7 C 67 % 1026,7 hPa 0,0 l/m 0 min 0 min 0 W/m 0,0 km/h (0 Bft) 100,00 %
27.03.2021 20:24 6,1 C 4,4 C 1,7 C 67 % 1026,6 hPa 0,0 l/m 0 min 0 min 0 W/m 0,0 km/h (0 Bft) 100,00 %
27.03.2021 20:26 6,0 C 4,4 C 1,7 C 67 % 1026,7 hPa 0,0 l/m 0 min 0 min 0 W/m 0,0 km/h (0 Bft) 93,62 %
27.03.2021 20:28 6,0 C 4,4 C 1,7 C 67 % 1026,7 hPa 0,0 l/m 0 min 0 min 0 W/m 0,0 km/h (0 Bft) 97,87 %
27.03.2021 20:30 6,0 C 4,4 C 1,7 C 67 % 1026,6 hPa 0,0 l/m 0 min 0 min 0 W/m 0,0 km/h (0 Bft) 97,87 %
27.03.2021 20:32 5,9 C 4,4 C 1,7 C 67 % 1026,7 hPa 0,0 l/m 0 min 0 min 0 W/m 0,0 km/h (0 Bft) 97,83 %
27.03.2021 20:34 5,9 C 4,4 C 1,7 C 67 % 1026,7 hPa 0,0 l/m 0 min 0 min 0 W/m 0,0 km/h (0 Bft) 95,74 %
27.03.2021 20:36 5,9 C 4,4 C 1,7 C 67 % 1026,8 hPa 0,0 l/m 0 min 0 min 0 W/m 0,0 km/h (0 Bft) 97,14 %
27.03.2021 20:38 5,8 C 4,4 C 1,7 C 67 % 1026,7 hPa 0,0 l/m 0 min 0 min 0 W/m 0,0 km/h (0 Bft) 97,87 %
27.03.2021 20:40 5,8 C 4,4 C 1,7 C 67 % 1026,8 hPa 0,0 l/m 0 min 0 min 0 W/m 3,2 km/h (1 Bft) 98,11 %
27.03.2021 20:42 5,8 C 4,4 C 1,7 C 67 % 1026,7 hPa 0,0 l/m 0 min 0 min 0 W/m 0,0 km/h (0 Bft) 97,87 %
27.03.2021 20:44 5,8 C 4,4 C 1,7 C 67 % 1026,9 hPa 0,0 l/m 0 min 0 min 0 W/m 3,2 km/h (1 Bft) 97,56 %
27.03.2021 20:46 5,7 C 4,4 C 2,3 C 68 % 1026,8 hPa 0,0 l/m 0 min 0 min 0 W/m 0,0 km/h (0 Bft) 97,87 %
27.03.2021 20:48 5,7 C 4,4 C 1,7 C 68 % 1026,9 hPa 0,0 l/m 0 min 0 min 0 W/m 0,0 km/h (0 Bft) 96,15 %
27.03.2021 20:50 5,7 C 4,4 C 1,7 C 68 % 1026,9 hPa 0,0 l/m 0 min 0 min 0 W/m 3,2 km/h (1 Bft) 97,56 %
27.03.2021 20:52 5,7 C 4,4 C 1,7 C 68 % 1026,8 hPa 0,0 l/m 0 min 0 min 0 W/m 0,0 km/h (0 Bft) 95,74 %
27.03.2021 20:54 5,6 C 4,4 C 1,7 C 68 % 1026,8 hPa 0,0 l/m 0 min 0 min 0 W/m 0,0 km/h (0 Bft) 98,11 %
27.03.2021 20:56 5,6 C 4,4 C 1,7 C 68 % 1026,9 hPa 0,0 l/m 0 min 0 min 0 W/m 0,0 km/h (0 Bft) 100,00 %
27.03.2021 20:58 5,6 C 3,9 C 1,7 C 69 % 1026,9 hPa 0,0 l/m 0 min 0 min 0 W/m 0,0 km/h (0 Bft) 97,87 %
27.03.2021 21:00 5,6 C 3,9 C 1,7 C 69 % 1026,9 hPa 0,0 l/m 0 min 0 min 0 W/m 0,0 km/h (0 Bft) 100,00 %
27.03.2021 21:02 5,6 C 3,9 C 1,1 C 70 % 1026,9 hPa 0,0 l/m 0 min 0 min 0 W/m 0,0 km/h (0 Bft) 97,87 %
27.03.2021 21:04 5,5 C 3,9 C 1,1 C 70 % 1026,9 hPa 0,0 l/m 0 min 0 min 0 W/m 0,0 km/h (0 Bft) 95,74 %
27.03.2021 21:06 5,5 C 3,9 C 1,1 C 70 % 1027,0 hPa 0,0 l/m 0 min 0 min 0 W/m 0,0 km/h (0 Bft) 100,00 %
27.03.2021 21:08 5,5 C 3,9 C 1,1 C 70 % 1027,0 hPa 0,0 l/m 0 min 0 min 0 W/m 0,0 km/h (0 Bft) 100,00 %
27.03.2021 21:10 5,5 C 3,3 C 1,1 C 71 % 1027,0 hPa 0,0 l/m 0 min 0 min 0 W/m 0,0 km/h (0 Bft) 100,00 %
27.03.2021 21:12 5,4 C 3,3 C 1,1 C 71 % 1027,0 hPa 0,0 l/m 0 min 0 min 0 W/m 0,0 km/h (0 Bft) 100,00 %
27.03.2021 21:14 5,4 C 3,3 C 1,1 C 71 % 1027,0 hPa 0,0 l/m 0 min 0 min 0 W/m 0,0 km/h (0 Bft) 100,00 %
27.03.2021 21:16 5,4 C 3,3 C 1,1 C 71 % 1027,1 hPa 0,0 l/m 0 min 0 min 0 W/m 0,0 km/h (0 Bft) 97,87 %
27.03.2021 21:18 5,3 C 3,3 C 0,6 C 72 % 1027,0 hPa 0,0 l/m 0 min 0 min 0 W/m 0,0 km/h (0 Bft) 100,00 %
27.03.2021 21:20 5,3 C 3,3 C 0,6 C 72 % 1027,1 hPa 0,0 l/m 0 min 0 min 0 W/m 0,0 km/h (0 Bft) 100,00 %
27.03.2021 21:22 5,2 C 3,3 C 0,6 C 72 % 1027,1 hPa 0,0 l/m 0 min 0 min 0 W/m 0,0 km/h (0 Bft) 97,83 %
27.03.2021 21:24 5,1 C 2,8 C 0,6 C 72 % 1027,1 hPa 0,0 l/m 0 min 0 min 0 W/m 0,0 km/h (0 Bft) 100,00 %
27.03.2021 21:26 5,1 C 2,8 C 0,6 C 72 % 1027,1 hPa 0,0 l/m 0 min 0 min 0 W/m 0,0 km/h (0 Bft) 100,00 %
27.03.2021 21:28 5,1 C 2,8 C 0,6 C 72 % 1027,1 hPa 0,0 l/m 0 min 0 min 0 W/m 0,0 km/h (0 Bft) 100,00 %
27.03.2021 21:30 5,0 C 2,8 C 0,6 C 72 % 1027,1 hPa 0,0 l/m 0 min 0 min 0 W/m 0,0 km/h (0 Bft) 97,87 %
27.03.2021 21:32 5,0 C 2,8 C 0,6 C 73 % 1027,2 hPa 0,0 l/m 0 min 0 min 0 W/m 0,0 km/h (0 Bft) 97,83 %
27.03.2021 21:34 4,9 C 2,8 C 0,6 C 73 % 1027,2 hPa 0,0 l/m 0 min 0 min 0 W/m 0,0 km/h (0 Bft) 95,74 %
27.03.2021 21:36 4,9 C 2,8 C 0,6 C 73 % 1027,2 hPa 0,0 l/m 0 min 0 min 0 W/m 0,0 km/h (0 Bft) 95,74 %
27.03.2021 21:38 4,8 C 2,8 C 0,6 C 73 % 1027,2 hPa 0,0 l/m 0 min 0 min 0 W/m 0,0 km/h (0 Bft) 97,92 %
27.03.2021 21:40 4,8 C 2,8 C 0,6 C 73 % 1027,3 hPa 0,0 l/m 0 min 0 min 0 W/m 0,0 km/h (0 Bft) 97,87 %
27.03.2021 21:42 4,7 C 2,8 C 0,6 C 73 % 1027,3 hPa 0,0 l/m 0 min 0 min 0 W/m 0,0 km/h (0 Bft) 95,65 %
27.03.2021 21:44 4,6 C 2,8 C 0,6 C 73 % 1027,3 hPa 0,0 l/m 0 min 0 min 0 W/m 0,0 km/h (0 Bft) 97,87 %
27.03.2021 21:46 4,6 C 2,8 C 0,6 C 73 % 1027,3 hPa 0,0 l/m 0 min 0 min 0 W/m 0,0 km/h (0 Bft) 95,74 %
27.03.2021 21:48 4,5 C 2,8 C 0,6 C 74 % 1027,3 hPa 0,0 l/m 0 min 0 min 0 W/m 0,0 km/h (0 Bft) 97,87 %
27.03.2021 21:50 4,5 C 2,8 C 0,6 C 74 % 1027,3 hPa 0,0 l/m 0 min 0 min 0 W/m 0,0 km/h (0 Bft) 97,87 %
27.03.2021 21:52 4,5 C 2,8 C 0,6 C 74 % 1027,3 hPa 0,0 l/m 0 min 0 min 0 W/m 0,0 km/h (0 Bft) 95,74 %
27.03.2021 21:54 4,4 C 2,8 C 0,6 C 74 % 1027,3 hPa 0,0 l/m 0 min 0 min 0 W/m 0,0 km/h (0 Bft) 98,00 %
27.03.2021 21:56 4,4 C 3,3 C 0,6 C 74 % 1027,3 hPa 0,0 l/m 0 min 0 min 0 W/m 0,0 km/h (0 Bft) 93,62 %
27.03.2021 21:58 4,4 C 3,3 C 0,6 C 74 % 1027,3 hPa 0,0 l/m 0 min 0 min 0 W/m 0,0 km/h (0 Bft) 95,74 %
27.03.2021 22:00 4,3 C 3,3 C 0,6 C 74 % 1027,4 hPa 0,0 l/m 0 min 0 min 0 W/m 3,2 km/h (1 Bft) 97,87 %
27.03.2021 22:02 4,3 C 3,3 C 0,6 C 75 % 1027,3 hPa 0,0 l/m 0 min 0 min 0 W/m 0,0 km/h (0 Bft) 95,74 %
27.03.2021 22:04 4,3 C 3,3 C 1,1 C 75 % 1027,4 hPa 0,0 l/m 0 min 0 min 0 W/m 0,0 km/h (0 Bft) 97,87 %
27.03.2021 22:06 4,3 C 3,3 C 1,1 C 75 % 1027,4 hPa 0,0 l/m 0 min 0 min 0 W/m 3,2 km/h (1 Bft) 95,65 %
27.03.2021 22:08 4,3 C 3,9 C 1,1 C 75 % 1027,5 hPa 0,0 l/m 0 min 0 min 0 W/m 0,0 km/h (0 Bft) 93,62 %
27.03.2021 22:10 4,3 C 3,9 C 1,1 C 75 % 1027,4 hPa 0,0 l/m 0 min 0 min 0 W/m 3,2 km/h (1 Bft) 93,62 %
27.03.2021 22:12 4,3 C 3,9 C 1,1 C 75 % 1027,4 hPa 0,0 l/m 0 min 0 min 0 W/m 0,0 km/h (0 Bft) 93,62 %
27.03.2021 22:14 4,3 C 3,9 C 1,1 C 76 % 1027,6 hPa 0,0 l/m 0 min 0 min 0 W/m 3,2 km/h (1 Bft) 95,74 %
27.03.2021 22:16 4,4 C 3,9 C 1,1 C 75 % 1027,6 hPa 0,0 l/m 0 min 0 min 0 W/m 3,2 km/h (1 Bft) 87,23 %
27.03.2021 22:18 4,4 C 4,4 C 1,7 C 75 % 1027,5 hPa 0,0 l/m 0 min 0 min 0 W/m 6,4 km/h (2 Bft) 93,48 %
27.03.2021 22:20 4,4 C 4,4 C 1,7 C 75 % 1027,5 hPa 0,0 l/m 0 min 0 min 0 W/m 6,4 km/h (2 Bft) 91,49 %
27.03.2021 22:23 4,5 C 4,4 C 2,3 C 74 % 1027,6 hPa 0,0 l/m 0 min 0 min 0 W/m 6,4 km/h (2 Bft) 92,86 %
27.03.2021 22:24 4,5 C 4,4 C 2,3 C 74 % 1027,6 hPa 0,0 l/m 0 min 0 min 0 W/m 3,2 km/h (1 Bft) 83,33 %
27.03.2021 22:26 4,6 C 4,4 C 2,3 C 74 % 1027,6 hPa 0,0 l/m 0 min 0 min 0 W/m 6,4 km/h (2 Bft) 93,62 %
27.03.2021 22:28 4,7 C 4,4 C 2,3 C 74 % 1027,6 hPa 0,0 l/m 0 min 0 min 0 W/m 3,2 km/h (1 Bft) 93,62 %
27.03.2021 22:30 4,8 C 4,4 C 2,3 C 74 % 1027,7 hPa 0,0 l/m 0 min 0 min 0 W/m 6,4 km/h (2 Bft) 93,48 %
27.03.2021 22:32 4,8 C 4,4 C 2,3 C 74 % 1027,7 hPa 0,0 l/m 0 min 0 min 0 W/m 3,2 km/h (1 Bft) 93,62 %
27.03.2021 22:34 4,9 C 4,4 C 2,3 C 73 % 1027,7 hPa 0,0 l/m 0 min 0 min 0 W/m 3,2 km/h (1 Bft) 93,62 %
27.03.2021 22:36 4,9 C 4,4 C 2,3 C 74 % 1027,7 hPa 0,0 l/m 0 min 0 min 0 W/m 12,9 km/h (3 Bft) 95,74 %
27.03.2021 22:38 4,9 C 4,4 C 2,3 C 73 % 1027,7 hPa 0,0 l/m 0 min 0 min 0 W/m 6,4 km/h (2 Bft) 93,62 %
27.03.2021 22:40 5,0 C 4,4 C 2,3 C 73 % 1027,6 hPa 0,0 l/m 0 min 0 min 0 W/m 9,7 km/h (2 Bft) 97,87 %
27.03.2021 22:42 5,0 C 4,4 C 2,3 C 73 % 1027,7 hPa 0,0 l/m 0 min 0 min 0 W/m 9,7 km/h (2 Bft) 97,83 %
27.03.2021 22:44 5,0 C 4,4 C 2,3 C 73 % 1027,7 hPa 0,0 l/m 0 min 0 min 0 W/m 6,4 km/h (2 Bft) 95,74 %
27.03.2021 22:46 5,0 C 4,4 C 2,3 C 73 % 1027,6 hPa 0,0 l/m 0 min 0 min 0 W/m 6,4 km/h (2 Bft) 97,87 %
27.03.2021 22:48 5,1 C 4,4 C 2,3 C 73 % 1027,6 hPa 0,0 l/m 0 min 0 min 0 W/m 6,4 km/h (2 Bft) 95,74 %
27.03.2021 22:50 5,1 C 4,4 C 2,3 C 73 % 1027,6 hPa 0,0 l/m 0 min 0 min 0 W/m 6,4 km/h (2 Bft) 100,00 %
27.03.2021 22:52 5,1 C 4,4 C 2,3 C 73 % 1027,7 hPa 0,0 l/m 0 min 0 min 0 W/m 6,4 km/h (2 Bft) 97,87 %
27.03.2021 22:54 5,1 C 4,4 C 2,3 C 73 % 1027,7 hPa 0,0 l/m 0 min 0 min 0 W/m 6,4 km/h (2 Bft) 97,83 %
27.03.2021 22:56 5,1 C 4,4 C 2,3 C 73 % 1027,7 hPa 0,0 l/m 0 min 0 min 0 W/m 3,2 km/h (1 Bft) 95,74 %
27.03.2021 22:58 5,1 C 4,4 C 2,3 C 73 % 1027,7 hPa 0,0 l/m 0 min 0 min 0 W/m 6,4 km/h (2 Bft) 95,74 %
27.03.2021 23:00 5,1 C 4,4 C 2,3 C 73 % 1027,7 hPa 0,0 l/m 0 min 0 min 0 W/m 6,4 km/h (2 Bft) 97,87 %
27.03.2021 23:02 5,1 C 4,4 C 2,3 C 73 % 1027,7 hPa 0,0 l/m 0 min 0 min 0 W/m 6,4 km/h (2 Bft) 97,87 %
27.03.2021 23:04 5,0 C 4,4 C 2,3 C 73 % 1027,6 hPa 0,0 l/m 0 min 0 min 0 W/m 3,2 km/h (1 Bft) 97,87 %
27.03.2021 23:06 5,0 C 4,4 C 2,3 C 73 % 1027,7 hPa 0,0 l/m 0 min 0 min 0 W/m 9,7 km/h (2 Bft) 95,65 %
27.03.2021 23:08 5,0 C 4,4 C 2,3 C 73 % 1027,7 hPa 0,0 l/m 0 min 0 min 0 W/m 6,4 km/h (2 Bft) 97,87 %
27.03.2021 23:10 5,0 C 4,4 C 2,3 C 74 % 1027,7 hPa 0,0 l/m 0 min 0 min 0 W/m 9,7 km/h (2 Bft) 97,87 %
27.03.2021 23:12 5,0 C 4,4 C 2,3 C 74 % 1027,7 hPa 0,0 l/m 0 min 0 min 0 W/m 6,4 km/h (2 Bft) 97,87 %
27.03.2021 23:14 5,0 C 4,4 C 2,3 C 74 % 1027,7 hPa 0,0 l/m 0 min 0 min 0 W/m 6,4 km/h (2 Bft) 97,87 %
27.03.2021 23:16 5,0 C 4,4 C 2,3 C 74 % 1027,6 hPa 0,0 l/m 0 min 0 min 0 W/m 6,4 km/h (2 Bft) 95,65 %
27.03.2021 23:18 5,0 C 4,4 C 2,3 C 74 % 1027,6 hPa 0,0 l/m 0 min 0 min 0 W/m 6,4 km/h (2 Bft) 97,87 %
27.03.2021 23:20 5,0 C 4,4 C 2,3 C 74 % 1027,7 hPa 0,0 l/m 0 min 0 min 0 W/m 6,4 km/h (2 Bft) 97,87 %
27.03.2021 23:22 5,0 C 4,4 C 2,3 C 74 % 1027,6 hPa 0,0 l/m 0 min 0 min 0 W/m 9,7 km/h (2 Bft) 97,87 %
27.03.2021 23:24 5,0 C 4,4 C 2,3 C 74 % 1027,6 hPa 0,0 l/m 0 min 0 min 0 W/m 6,4 km/h (2 Bft) 97,87 %
27.03.2021 23:26 5,0 C 4,4 C 2,3 C 74 % 1027,7 hPa 0,0 l/m 0 min 0 min 0 W/m 3,2 km/h (1 Bft) 97,87 %
27.03.2021 23:28 5,0 C 4,4 C 2,3 C 74 % 1027,7 hPa 0,0 l/m 0 min 0 min 0 W/m 6,4 km/h (2 Bft) 97,87 %
27.03.2021 23:30 5,0 C 4,4 C 2,3 C 74 % 1027,7 hPa 0,0 l/m 0 min 0 min 0 W/m 6,4 km/h (2 Bft) 97,83 %
27.03.2021 23:32 5,0 C 4,4 C 2,3 C 74 % 1027,7 hPa 0,0 l/m 0 min 0 min 0 W/m 6,4 km/h (2 Bft) 97,87 %
27.03.2021 23:34 5,0 C 4,4 C 2,3 C 75 % 1027,7 hPa 0,0 l/m 0 min 0 min 0 W/m 6,4 km/h (2 Bft) 97,87 %
27.03.2021 23:36 5,0 C 4,4 C 2,3 C 75 % 1027,7 hPa 0,0 l/m 0 min 0 min 0 W/m 3,2 km/h (1 Bft) 97,87 %
27.03.2021 23:38 5,0 C 4,4 C 2,3 C 75 % 1027,6 hPa 0,0 l/m 0 min 0 min 0 W/m 6,4 km/h (2 Bft) 97,87 %
27.03.2021 23:40 5,0 C 4,4 C 2,3 C 75 % 1027,7 hPa 0,0 l/m 0 min 0 min 0 W/m 6,4 km/h (2 Bft) 100,00 %
27.03.2021 23:42 5,0 C 4,4 C 2,3 C 75 % 1027,7 hPa 0,0 l/m 0 min 0 min 0 W/m 9,7 km/h (2 Bft) 97,83 %
27.03.2021 23:44 5,0 C 4,4 C 2,3 C 75 % 1027,7 hPa 0,0 l/m 0 min 0 min 0 W/m 3,2 km/h (1 Bft) 100,00 %
27.03.2021 23:46 5,0 C 4,4 C 2,3 C 75 % 1027,7 hPa 0,0 l/m 0 min 0 min 0 W/m 3,2 km/h (1 Bft) 100,00 %
27.03.2021 23:48 5,0 C 4,4 C 2,3 C 75 % 1027,7 hPa 0,0 l/m 0 min 0 min 0 W/m 6,4 km/h (2 Bft) 100,00 %
27.03.2021 23:50 5,0 C 4,4 C 2,3 C 76 % 1027,7 hPa 0,0 l/m 0 min 0 min 0 W/m 6,4 km/h (2 Bft) 95,74 %
27.03.2021 23:52 5,0 C 4,4 C 2,3 C 76 % 1027,7 hPa 0,0 l/m 0 min 0 min 0 W/m 6,4 km/h (2 Bft) 100,00 %
27.03.2021 23:54 5,1 C 4,4 C 2,3 C 76 % 1027,6 hPa 0,0 l/m 0 min 0 min 0 W/m 3,2 km/h (1 Bft) 100,00 %
27.03.2021 23:56 5,1 C 4,4 C 2,3 C 76 % 1027,7 hPa 0,0 l/m 0 min 0 min 0 W/m 6,4 km/h (2 Bft) 97,87 %
27.03.2021 23:58 5,1 C 4,4 C 2,3 C 76 % 1027,7 hPa 0,0 l/m 0 min 0 min 0 W/m 6,4 km/h (2 Bft) 97,87 %
_ Min-Zeit 22:00 21:24 21:18 13:56 00:00 - - - - 20:02 11:18
Minimum _ 4,3 C 2,8 C 0,6 C 54 % 1011,3 hPa - - - - 0,0 km/h (0 Bft) 48,89 %
_ Max-Zeit 14:00 14:00 11:58 02:36 22:30 01:30 12:08 00:16 13:10 13:20 00:28
Maximum _ 11,9 C 16,7 C 12,3 C 93 % 1027,7 hPa 0,2 l/m 4 min 2 min 926 W/m 51,5 km/h
O (7 Bft)
100,00 %
Durchschnitt _ 7,4 C 7,7 C 4,8 C 75 % 1020,6 hPa #1,6 l/m #6:00 h #3:56 h 284 W/m 18,2 km/h (3 Bft) 96,49 %
© 2021 W. Hausmann